Latitude: N 50° 09' 49" Longitude: W 05° 11' 53" Elevation: 168m ASL

There are 3 visitors online

Adverts

<- Previous Day | Today | Next Day ->

All Data for 15 February 2018

Time
A - D
Temp
A - D
Dew Point
A - D
Humidity
A - D
Pressure
A - D
Wind
A - D
Wind Dir Gust
A - D
Rain Rate
A - D
Rain Total
00:00 8.5 8.4 99 1002.0 13.0 N 13.6 0.0 0.0
00:01 8.5 8.4 99 1001.9 13.0 N 13.0 0.0 0.0
00:03 8.5 8.4 99 1001.9 13.0 N 13.0 0.0 0.0
00:04 8.6 8.5 99 1002.0 13.0 S 13.0 0.0 0.0
00:06 8.5 8.4 99 1002.1 11.4 S 13.0 0.0 0.0
00:08 8.6 8.5 99 1002.0 16.8 S 19.0 0.0 0.0
00:09 8.6 8.5 99 1002.1 14.5 S 19.0 0.0 0.0
00:10 8.6 8.5 99 1002.0 18.3 NW 19.0 0.0 0.0
00:12 8.6 8.5 99 1002.0 14.5 WSW 19.0 0.0 0.0
00:13 8.6 8.5 99 1002.1 15.2 S 19.0 0.0 0.0
00:15 8.6 8.5 99 1002.0 11.4 WSW 19.0 0.0 0.0
00:16 8.6 8.5 99 1002.0 13.0 SE 19.0 0.0 0.0
00:18 8.6 8.5 99 1002.1 12.1 WSW 18.3 0.0 0.0
00:19 8.6 8.5 99 1002.0 15.2 S 18.3 0.0 0.0
00:20 8.6 8.5 99 1002.2 10.7 WNW 15.9 0.0 0.0
00:21 8.6 8.5 99 1002.0 12.1 WSW 15.9 0.0 0.0
00:23 8.6 8.5 99 1002.1 12.1 WSW 15.9 0.0 0.0
00:24 8.5 8.4 99 1002.0 10.7 WSW 15.9 0.0 0.0
00:25 8.5 8.4 99 1002.0 11.4 WSW 15.2 0.0 0.0
00:26 8.5 8.4 99 1002.0 9.8 WSW 15.2 0.0 0.0
00:27 8.5 8.4 99 1002.0 6.9 WSW 15.2 0.0 0.0
00:28 8.4 8.3 99 1002.0 11.4 S 15.2 0.0 0.0
00:29 8.4 8.3 99 1002.2 9.2 S 13.6 0.0 0.0
00:31 8.4 8.3 99 1002.1 9.2 S 12.1 0.0 0.0
00:32 8.4 8.3 99 1002.2 8.3 S 12.1 0.0 0.0
00:34 8.3 8.2 99 1002.3 10.7 S 12.1 0.0 0.0
00:35 8.3 8.2 99 1002.2 9.2 WSW 12.1 0.0 0.0
00:37 8.3 8.2 99 1002.1 11.4 WSW 12.1 0.0 0.0
00:38 8.2 8.1 99 1002.4 9.8 WSW 13.6 0.0 0.0
00:39 8.2 8.1 99 1002.2 14.5 WSW 14.5 0.0 0.0
00:40 8.2 8.1 99 1002.3 15.9 WSW 15.9 0.0 0.0
00:41 8.2 8.1 99 1002.2 10.7 S 15.9 0.0 0.0
00:42 8.2 8.1 99 1002.0 9.2 S 15.9 0.0 0.0
00:43 8.2 8.1 99 1002.1 11.4 S 15.9 0.0 0.0
00:44 8.2 8.1 99 1002.0 7.6 S 15.9 0.0 0.0
00:45 8.2 8.1 99 1002.0 11.4 S 15.9 0.0 0.0
00:46 8.2 8.1 99 1002.1 12.1 WSW 15.9 0.0 0.0
00:47 8.2 8.1 99 1002.1 12.1 S 15.9 0.0 0.0
00:48 8.1 8.0 99 1002.3 9.2 WSW 15.9 0.0 0.0
00:49 8.1 8.0 99 1002.1 10.7 S 15.9 0.0 0.0
00:50 8.2 8.1 99 1002.2 9.2 WSW 13.6 0.0 0.0
00:51 8.1 8.0 99 1002.4 9.8 S 13.6 0.0 0.0
00:52 8.1 8.0 99 1002.3 8.3 WSW 13.6 0.0 0.0
00:53 8.1 8.0 99 1002.4 9.2 WSW 13.6 0.0 0.0
00:54 8.1 8.0 99 1002.3 8.3 S 13.6 0.0 0.0
00:55 8.1 8.0 99 1002.4 9.2 S 13.6 0.0 0.0
00:56 8.1 8.0 99 1002.2 9.2 S 13.6 0.0 0.0
00:57 8.1 8.0 99 1002.3 9.8 S 13.6 0.0 0.0
00:59 8.1 8.0 99 1002.5 12.1 WSW 12.1 0.0 0.0
01:00 8.1 8.0 99 1002.5 12.1 WSW 12.1 0.0 0.0
01:01 8.1 8.0 99 1002.4 12.1 WSW 12.1 0.0 0.0
01:02 8.1 8.0 99 1002.5 12.1 WSW 12.1 0.0 0.0
01:03 8.1 8.0 99 1002.5 12.1 WSW 12.1 0.0 0.0
01:04 8.1 8.0 99 1002.3 12.1 WSW 12.1 0.0 0.0
01:05 8.1 8.0 99 1002.3 10.7 N 12.1 0.0 0.0
01:06 8.1 8.0 99 1002.4 10.7 S 12.1 0.0 0.0
01:07 8.1 8.0 99 1002.4 8.3 WSW 12.1 0.0 0.0
01:08 8.1 8.0 99 1002.4 10.7 S 12.1 0.0 0.0
01:09 8.1 8.0 99 1002.5 10.7 WSW 12.1 0.0 0.0
01:10 8.1 8.0 99 1002.4 11.4 W 14.5 0.0 0.0
01:11 8.1 8.0 99 1002.5 12.1 S 14.5 0.0 0.0
01:12 8.1 8.0 99 1002.6 10.7 S 14.5 0.0 0.0
01:13 8.1 8.0 99 1002.6 10.7 WSW 14.5 0.0 0.0
01:14 8.1 8.0 99 1002.6 11.4 S 14.5 0.0 0.0
01:15 8.1 8.0 99 1002.7 11.4 WSW 14.5 0.0 0.0
01:16 8.1 8.0 99 1002.7 10.7 WSW 14.5 0.0 0.0
01:18 8.1 8.0 99 1002.8 11.4 WSW 14.5 0.0 0.0
01:19 8.1 8.0 99 1002.9 12.1 S 14.5 0.0 0.0
01:20 8.1 8.0 99 1002.8 11.4 NW 14.5 0.0 0.0
01:21 8.1 8.0 99 1002.9 11.4 S 13.0 0.0 0.0
01:22 8.1 8.0 99 1002.8 9.2 S 13.0 0.0 0.0
01:23 8.1 8.0 99 1002.8 9.8 WSW 13.0 0.0 0.0
01:24 8.1 8.0 99 1002.7 10.7 WSW 13.0 0.0 0.0
01:25 8.0 7.9 99 1002.8 12.1 S 13.0 0.0 0.0
01:26 8.0 7.9 99 1002.7 13.6 W 13.6 0.0 0.0
01:27 8.0 7.9 99 1002.7 9.8 WSW 13.6 0.0 0.0
01:28 8.0 7.9 99 1002.8 8.3 WSW 13.6 0.0 0.0
01:29 8.0 7.9 99 1002.8 9.2 WSW 13.6 0.0 0.0
01:30 8.0 7.9 99 1002.8 9.8 S 13.6 0.0 0.0
01:31 8.0 7.9 99 1002.8 10.7 S 13.6 0.0 0.0
01:32 8.0 7.9 99 1002.7 14.5 S 14.5 0.0 0.0
01:33 8.0 7.9 99 1003.0 10.7 WSW 14.5 0.0 0.0
01:34 8.0 7.9 99 1002.9 10.7 S 14.5 0.0 0.0
01:35 8.0 7.9 99 1002.9 9.2 WSW 14.5 0.0 0.0
01:36 8.0 7.9 99 1003.0 11.4 WSW 14.5 0.0 0.0
01:37 8.0 7.9 99 1003.0 12.1 SW 14.5 0.0 0.0
01:38 8.0 7.9 99 1002.9 10.7 S 14.5 0.0 0.0
01:39 7.9 7.8 99 1002.9 11.4 WSW 14.5 0.0 0.1
01:40 8.0 7.9 99 1002.9 11.4 W 14.5 0.8 0.1
01:41 8.0 7.9 99 1003.0 12.1 S 14.5 0.8 0.1
01:42 8.0 7.9 99 1002.9 8.3 WSW 14.5 0.8 0.1
01:44 7.9 7.8 99 1002.9 9.2 S 12.1 0.8 0.1
01:45 7.9 7.8 99 1003.2 9.8 S 12.1 0.0 0.1
01:46 7.9 7.8 99 1003.2 9.2 S 12.1 0.0 0.1
01:47 7.9 7.8 99 1003.2 10.7 NNW 12.1 0.0 0.1
01:48 7.9 7.8 99 1003.1 11.4 NNW 12.1 0.0 0.1
01:49 7.9 7.8 99 1003.0 13.0 WSW 13.0 0.0 0.1
01:50 7.8 7.7 99 1003.2 12.1 WSW 13.0 0.0 0.1
01:51 7.9 7.8 99 1003.2 10.7 WSW 13.0 0.0 0.1
01:52 7.9 7.8 99 1003.1 12.1 WSW 13.0 0.0 0.1
01:53 7.9 7.8 99 1003.1 9.2 S 13.0 0.0 0.1
01:54 7.9 7.8 99 1003.2 11.4 S 13.0 0.0 0.1
01:55 7.9 7.8 99 1003.3 10.7 S 13.0 0.0 0.1
01:57 7.9 7.8 99 1003.3 13.6 S 13.6 0.0 0.1
01:58 7.9 7.8 99 1003.3 10.7 S 13.6 0.0 0.1
01:59 7.9 7.8 99 1003.4 8.3 S 13.6 0.0 0.1
02:00 7.9 7.8 99 1003.3 8.3 S 13.6 0.0 0.1
02:01 7.9 7.8 99 1003.2 8.3 S 13.6 0.0 0.1
02:02 7.9 7.8 99 1003.2 8.3 S 13.6 0.0 0.1
02:03 7.9 7.8 99 1003.4 8.3 S 13.6 0.0 0.1
02:04 7.9 7.8 99 1003.4 9.8 WSW 13.6 0.0 0.1
02:05 7.9 7.8 99 1003.2 11.4 WSW 13.6 0.0 0.1
02:06 7.9 7.8 99 1003.4 9.2 S 13.6 0.0 0.1
02:07 7.9 7.8 99 1003.4 8.3 S 11.4 0.0 0.1
02:08 7.9 7.8 99 1003.3 12.1 WSW 12.1 0.0 0.1
02:09 7.9 7.8 99 1003.5 8.3 W 13.0 0.0 0.1
02:10 7.9 7.8 99 1003.5 9.8 S 13.0 0.0 0.1
02:12 7.9 7.8 99 1003.4 13.6 W 13.6 0.0 0.1
02:13 7.8 7.7 99 1003.5 6.9 WSW 13.6 0.0 0.1
02:15 7.8 7.7 99 1003.5 11.4 WSW 13.6 0.0 0.1
02:17 7.8 7.7 99 1003.5 9.2 WSW 13.6 0.0 0.1
02:18 7.8 7.7 99 1003.4 10.7 WSW 13.6 0.0 0.1
02:20 7.9 7.8 99 1003.4 11.4 WSW 13.6 0.0 0.1
02:21 7.9 7.8 99 1003.5 13.0 WSW 13.6 0.0 0.1
02:23 7.9 7.8 99 1003.6 9.2 WSW 13.6 0.0 0.1
02:24 7.9 7.8 99 1003.5 11.4 S 13.6 0.0 0.1
02:25 7.9 7.8 99 1003.6 9.2 S 13.6 0.0 0.1
02:27 7.9 7.8 99 1003.7 10.7 W 13.6 0.0 0.1
02:28 7.9 7.8 99 1003.7 13.0 S 13.0 0.0 0.1
02:29 7.9 7.8 99 1003.5 12.1 S 13.0 0.0 0.1
02:30 7.9 7.8 99 1003.7 11.4 WSW 13.0 0.0 0.1
02:31 7.9 7.8 99 1003.7 12.1 S 13.0 0.0 0.1
02:32 7.9 7.8 99 1003.7 9.8 WSW 13.0 0.0 0.1
02:33 7.9 7.8 99 1003.7 13.0 WSW 13.0 0.0 0.1
02:34 7.9 7.8 99 1003.7 9.8 NNE 13.0 0.0 0.1
02:35 7.9 7.8 99 1003.6 13.0 NW 13.0 0.0 0.1
02:36 7.9 7.8 99 1003.7 13.0 WSW 13.0 0.0 0.1
02:37 7.9 7.8 99 1003.7 9.8 WSW 13.0 0.0 0.1
02:38 7.9 7.8 99 1003.7 9.2 WSW 13.0 0.0 0.1
02:39 7.9 7.8 99 1003.7 9.2 WSW 13.0 0.0 0.1
02:40 7.9 7.8 99 1003.6 9.8 S 13.0 0.0 0.1
02:41 7.9 7.8 99 1003.7 11.4 WSW 13.0 0.0 0.1
02:42 7.9 7.8 99 1003.8 11.4 WSW 13.0 0.0 0.1
02:43 7.9 7.8 99 1003.7 10.7 WSW 13.0 0.0 0.1
02:44 7.9 7.8 99 1003.7 9.8 SW 13.0 0.0 0.1
02:45 7.9 7.8 99 1003.7 10.7 WSW 13.0 0.0 0.1
02:46 7.9 7.8 99 1003.7 9.2 S 11.4 0.0 0.1
02:47 7.9 7.8 99 1003.7 11.4 WSW 11.4 0.0 0.1
02:48 7.9 7.8 99 1003.7 11.4 W 11.4 0.0 0.1
02:50 7.9 7.8 99 1003.7 11.4 S 11.4 0.0 0.1
02:51 7.8 7.7 99 1003.8 10.7 WSW 11.4 0.0 0.1
02:52 7.9 7.8 99 1003.8 11.4 S 11.4 0.0 0.1
02:53 7.8 7.7 99 1003.9 9.2 WSW 11.4 0.0 0.1
02:54 7.9 7.8 99 1003.8 8.3 S 11.4 0.0 0.1
02:55 7.8 7.7 99 1003.9 7.6 W 11.4 0.0 0.1
02:56 7.8 7.7 99 1004.0 10.7 W 11.4 0.0 0.1
02:57 7.8 7.7 99 1004.0 9.8 S 11.4 0.0 0.1
02:59 7.8 7.7 99 1003.9 14.5 WSW 14.5 0.0 0.1
03:00 7.8 7.7 99 1004.0 14.5 WSW 14.5 0.0 0.1
03:01 7.8 7.7 99 1004.1 14.5 WSW 14.5 0.0 0.1
03:02 7.8 7.7 99 1004.1 14.5 WSW 14.5 0.0 0.1
03:03 7.8 7.7 99 1004.0 14.5 WSW 14.5 0.0 0.1
03:04 7.7 7.6 99 1004.2 8.3 S 14.5 0.0 0.1
03:05 7.7 7.6 99 1004.0 10.7 WSW 14.5 0.0 0.1
03:06 7.8 7.7 99 1004.0 11.4 WSW 14.5 0.0 0.1
03:07 7.8 7.7 99 1004.1 13.0 WSW 14.5 0.0 0.1
03:08 7.7 7.6 99 1004.1 11.4 WSW 14.5 0.0 0.1
03:09 7.7 7.6 99 1004.3 9.2 WSW 14.5 0.0 0.1
03:10 7.7 7.6 99 1004.1 9.2 WSW 14.5 0.0 0.1
03:12 7.7 7.6 99 1004.2 9.8 WSW 14.5 0.0 0.1
03:13 7.7 7.6 99 1004.1 7.6 S 14.5 0.0 0.1
03:14 7.7 7.6 99 1004.1 7.6 NW 14.5 0.0 0.1
03:15 7.7 7.6 99 1004.1 7.6 WSW 13.0 0.0 0.1
03:16 7.7 7.6 99 1004.2 7.6 W 13.0 0.0 0.1
03:17 7.7 7.6 99 1004.3 10.7 WSW 13.0 0.0 0.1
03:18 7.7 7.6 99 1004.3 8.3 WSW 12.1 0.0 0.1
03:19 7.7 7.6 99 1004.2 7.6 WSW 12.1 0.0 0.1
03:20 7.7 7.6 99 1004.3 9.8 WSW 10.7 0.0 0.1
03:21 7.6 7.5 99 1004.2 8.3 S 10.7 0.0 0.1
03:22 7.6 7.5 99 1004.4 10.7 S 15.2 0.0 0.1
03:23 7.6 7.5 99 1004.2 9.2 WSW 15.2 0.0 0.1
03:24 7.6 7.5 99 1004.3 7.6 WSW 15.2 0.0 0.1
03:25 7.6 7.5 99 1004.4 9.2 WSW 15.2 0.0 0.1
03:26 7.6 7.5 99 1004.3 9.8 WSW 15.2 0.0 0.1
03:27 7.6 7.5 99 1004.4 13.0 S 15.2 0.0 0.1
03:28 7.6 7.5 99 1004.5 12.1 WSW 15.2 0.0 0.1
03:29 7.6 7.5 99 1004.4 12.1 S 15.2 0.0 0.1
03:30 7.6 7.5 99 1004.5 10.7 WSW 15.2 0.0 0.1
03:32 7.6 7.5 99 1004.5 9.2 S 13.0 0.0 0.1
03:33 7.6 7.5 99 1004.6 13.0 NNW 13.0 0.0 0.1
03:34 7.6 7.5 99 1004.7 9.2 WSW 13.0 0.0 0.1
03:35 7.6 7.5 99 1004.6 9.8 WSW 13.0 0.0 0.1
03:36 7.6 7.5 99 1004.6 11.4 WSW 13.0 0.0 0.1
03:37 7.6 7.5 99 1004.7 11.4 WSW 13.0 0.0 0.1
03:38 7.6 7.5 99 1004.6 13.6 WSW 13.6 0.0 0.1
03:39 7.6 7.5 99 1004.7 14.5 WSW 14.5 0.0 0.1
03:40 7.6 7.5 99 1004.7 13.0 WSW 14.5 0.0 0.1
03:41 7.6 7.5 99 1004.6 12.1 WSW 14.5 0.0 0.1
03:42 7.6 7.5 99 1004.6 9.2 WSW 14.5 0.0 0.1
03:43 7.6 7.5 99 1004.7 10.7 WSW 14.5 0.0 0.1
03:44 7.6 7.5 99 1004.6 13.0 WSW 14.5 0.0 0.1
03:45 7.6 7.5 99 1004.6 14.5 WSW 14.5 0.0 0.1
03:46 7.6 7.5 99 1004.7 11.4 WSW 14.5 0.0 0.1
03:47 7.6 7.5 99 1004.6 12.1 WSW 14.5 0.0 0.1
03:48 7.6 7.5 99 1004.6 11.4 S 14.5 0.0 0.1
03:49 7.6 7.5 99 1004.6 13.6 WSW 14.5 0.0 0.1
03:50 7.6 7.5 99 1004.7 12.1 WSW 14.5 0.0 0.1
03:51 7.6 7.5 99 1004.9 10.7 WSW 14.5 0.0 0.1
03:53 7.6 7.5 99 1004.8 8.3 W 14.5 0.0 0.1
03:54 7.5 7.4 99 1004.7 9.2 WSW 14.5 0.0 0.1
03:55 7.6 7.5 99 1004.8 11.4 WSW 14.5 0.0 0.1
03:56 7.5 7.4 99 1004.8 12.1 WSW 13.6 0.0 0.1
03:57 7.6 7.5 99 1004.7 11.4 WSW 13.6 0.0 0.1
03:58 7.5 7.4 99 1004.7 13.6 W 13.6 0.0 0.1
03:59 7.5 7.4 99 1004.7 15.2 WSW 15.2 0.0 0.1
04:00 7.5 7.4 99 1004.7 14.5 WSW 15.2 0.0 0.1
04:01 7.5 7.4 99 1004.7 14.5 WSW 15.2 0.0 0.1
04:02 7.5 7.4 99 1004.9 14.5 WSW 15.2 0.0 0.1
04:03 7.5 7.4 99 1004.9 14.5 WSW 15.2 0.0 0.1
04:04 7.5 7.4 99 1005.0 14.5 WSW 15.2 0.0 0.1
04:05 7.5 7.4 99 1004.8 12.1 WSW 15.2 0.0 0.1
04:06 7.5 7.4 99 1004.8 13.6 NW 15.2 0.0 0.1
04:07 7.5 7.4 99 1004.8 12.1 WSW 15.2 0.0 0.1
04:09 7.4 7.3 99 1004.8 13.6 WSW 14.5 0.0 0.1
04:10 7.4 7.3 99 1005.0 11.4 WSW 14.5 0.0 0.1
04:11 7.4 7.3 99 1004.9 11.4 WSW 14.5 0.0 0.1
04:12 7.4 7.3 99 1004.9 13.6 WSW 14.5 0.0 0.1
04:14 7.4 7.3 99 1004.8 11.4 N 14.5 0.0 0.1
04:16 7.4 7.3 99 1005.0 13.0 N 13.6 0.0 0.1
04:17 7.4 7.3 99 1004.8 13.6 SW 13.6 0.0 0.1
04:19 7.3 7.2 99 1005.1 12.1 W 13.6 0.0 0.1
04:20 7.3 7.2 99 1004.9 11.4 S 13.6 0.0 0.1
04:22 7.3 7.2 99 1005.1 12.1 N 13.6 0.0 0.1
04:23 7.3 7.2 99 1005.1 13.6 S 13.6 0.0 0.1
04:25 7.3 7.2 99 1004.9 13.0 N 13.6 0.0 0.1
04:26 7.3 7.2 99 1005.3 9.8 N 13.6 0.0 0.1
04:27 7.2 7.1 99 1005.3 9.2 W 13.6 0.0 0.1
04:28 7.3 7.2 99 1005.2 13.0 N 13.6 0.0 0.1
04:29 7.2 7.1 99 1005.2 9.8 N 13.6 0.0 0.1
04:30 7.2 7.1 99 1005.2 9.8 N 13.6 0.0 0.1
04:31 7.2 7.1 99 1005.2 10.7 N 13.6 0.0 0.1
04:32 7.2 7.1 99 1005.2 10.7 N 13.6 0.0 0.1
04:33 7.2 7.1 99 1005.2 9.2 NW 13.6 0.0 0.1
04:34 7.2 7.1 99 1005.2 11.4 N 13.0 0.0 0.1
04:35 7.2 7.1 99 1005.2 9.2 N 13.0 0.0 0.1
04:36 7.2 7.1 99 1005.3 9.2 N 13.0 0.0 0.1
04:37 7.1 7.0 99 1005.2 11.4 N 13.0 0.0 0.1
04:38 7.1 7.0 99 1005.3 9.8 N 15.2 0.0 0.1
04:39 7.1 7.0 99 1005.4 9.8 SW 15.2 0.0 0.1
04:41 7.1 7.0 99 1005.3 9.8 S 15.2 0.0 0.1
04:42 7.1 7.0 99 1005.4 9.8 S 15.2 0.0 0.1
04:43 7.1 7.0 99 1005.3 13.0 W 15.2 0.0 0.1
04:44 7.1 7.0 99 1005.4 11.4 N 15.2 0.0 0.1
04:45 7.1 7.0 99 1005.6 9.8 N 15.2 0.0 0.1
04:46 7.0 6.9 99 1005.5 11.4 S 15.2 0.0 0.1
04:47 7.0 6.9 99 1005.6 12.1 SW 15.2 0.0 0.1
04:48 7.0 6.9 99 1005.6 13.0 SW 13.0 0.0 0.1
04:49 7.1 7.0 99 1005.6 11.4 NW 13.0 0.0 0.1
04:50 7.0 6.9 99 1005.6 12.1 NW 13.0 0.0 0.1
04:51 6.9 6.8 99 1005.8 9.8 NW 13.0 0.0 0.1
04:52 6.9 6.8 99 1005.7 9.8 SW 13.0 0.0 0.1
04:53 7.0 6.9 99 1005.7 13.0 SW 13.0 0.0 0.1
04:54 7.0 6.9 99 1005.8 9.8 S 13.0 0.0 0.1
04:55 7.0 6.9 99 1005.7 10.7 S 13.0 0.0 0.1
04:56 7.0 6.9 99 1005.5 9.2 N 13.0 0.0 0.1
04:57 7.0 6.9 99 1005.8 9.8 N 13.0 0.0 0.1
04:58 7.0 6.9 99 1005.7 8.3 W 13.0 0.0 0.1
04:59 7.0 6.9 99 1005.8 9.8 W 13.0 0.0 0.1
05:01 7.0 6.9 99 1005.8 9.8 W 13.0 0.0 0.1
05:02 7.0 6.9 99 1005.8 10.7 N 13.0 0.0 0.1
05:03 7.0 6.9 99 1005.8 11.4 SW 13.0 0.0 0.1
05:04 6.8 6.7 99 1005.8 9.8 SW 11.4 0.0 0.1
05:05 6.9 6.8 99 1005.9 10.7 SW 11.4 0.0 0.1
05:06 6.9 6.8 99 1005.8 8.3 W 11.4 0.0 0.1
05:07 6.9 6.8 99 1006.0 7.6 WNW 11.4 0.0 0.1
05:08 6.9 6.8 99 1006.1 8.3 WNW 11.4 0.0 0.1
05:09 6.8 6.7 99 1006.1 8.3 SW 11.4 0.0 0.1
05:10 6.9 6.8 99 1006.0 9.2 SW 15.9 0.0 0.1
05:11 6.7 6.6 99 1006.1 8.3 SW 15.9 0.0 0.1
05:12 6.7 6.6 99 1006.2 8.3 W 15.9 0.0 0.1
05:13 6.8 6.7 99 1006.2 11.4 N 15.9 0.0 0.1
05:14 6.8 6.7 99 1006.2 13.0 N 15.9 0.0 0.1
05:15 6.8 6.7 99 1006.0 9.8 SW 15.9 0.0 0.1
05:16 6.8 6.7 99 1006.1 10.7 SW 15.9 0.0 0.1
05:17 6.8 6.7 99 1006.2 9.2 SW 15.9 0.0 0.1
05:18 6.8 6.7 99 1006.1 9.8 SW 15.9 0.0 0.1
05:20 6.8 6.7 99 1006.2 10.7 N 13.0 0.0 0.1
05:21 6.8 6.7 99 1006.3 9.8 N 13.0 0.0 0.1
05:22 6.7 6.6 99 1006.2 10.7 W 13.0 0.0 0.1
05:23 6.8 6.7 99 1006.3 13.6 SW 13.6 0.0 0.1
05:24 6.8 6.7 99 1006.3 9.8 SW 13.6 0.0 0.1
05:25 6.7 6.6 99 1006.3 9.8 SW 13.6 0.0 0.1
05:26 6.7 6.6 99 1006.3 12.1 SW 13.6 0.0 0.1
05:27 6.7 6.6 99 1006.4 13.6 SW 13.6 0.0 0.1
05:28 6.7 6.6 99 1006.3 13.0 SW 13.6 0.0 0.1
05:29 6.7 6.6 99 1006.4 10.7 SW 13.6 0.0 0.1
05:30 6.7 6.6 99 1006.5 9.2 SW 13.6 0.0 0.1
05:31 6.7 6.6 99 1006.4 11.4 SW 13.6 0.0 0.1
05:32 6.6 6.5 99 1006.4 13.6 SW 13.6 0.0 0.1
05:33 6.6 6.5 99 1006.6 11.4 SW 13.6 0.0 0.1
05:34 6.6 6.5 99 1006.7 9.2 SW 13.6 0.0 0.1
05:35 6.6 6.5 99 1006.7 9.8 SW 13.6 0.0 0.1
05:36 6.6 6.5 99 1006.7 9.8 SW 13.6 0.0 0.1
05:37 6.6 6.5 99 1006.7 8.3 SW 13.6 0.0 0.1
05:38 6.6 6.5 99 1006.8 9.8 SW 13.6 0.0 0.1
05:39 6.6 6.5 99 1006.8 11.4 W 13.6 0.0 0.1
05:40 6.6 6.5 99 1006.7 13.0 SW 13.6 0.0 0.1
05:42 6.6 6.5 99 1006.6 12.1 W 13.6 0.0 0.1
05:43 6.5 6.4 99 1006.8 12.1 W 13.6 0.0 0.1
05:44 6.5 6.4 99 1006.9 7.6 SW 13.0 0.0 0.1
05:45 6.5 6.4 99 1006.8 9.2 SW 13.0 0.0 0.1
05:46 6.5 6.4 99 1006.8 6.9 W 13.0 0.0 0.1
05:47 6.5 6.4 99 1006.8 11.4 SW 13.0 0.0 0.1
05:48 6.4 6.3 99 1006.7 8.3 W 13.0 0.0 0.1
05:49 6.5 6.4 99 1006.9 9.2 SW 13.0 0.0 0.1
05:50 6.4 6.3 99 1006.8 6.9 SW 13.0 0.0 0.1
05:51 6.5 6.4 99 1006.9 8.3 W 12.1 0.0 0.1
05:52 6.5 6.4 99 1006.9 9.2 NW 12.1 0.0 0.1
05:53 6.4 6.3 99 1006.9 8.3 W 11.4 0.0 0.1
05:54 6.4 6.3 99 1007.0 7.6 SW 11.4 0.0 0.1
05:55 6.4 6.3 99 1006.9 7.6 SW 11.4 0.0 0.1
05:56 6.4 6.3 99 1006.8 6.9 W 11.4 0.0 0.1
05:57 6.4 6.3 99 1007.0 9.8 W 9.8 0.0 0.1
05:58 6.4 6.3 99 1006.9 9.8 W 9.8 0.0 0.1
05:59 6.4 6.3 99 1006.9 8.3 S 9.8 0.0 0.1
06:00 6.4 6.3 99 1007.0 8.3 S 9.8 0.0 0.1
06:02 6.4 6.3 99 1007.0 8.3 S 9.8 0.0 0.1
06:03 6.4 6.3 99 1007.1 8.3 S 9.8 0.0 0.1
06:04 6.4 6.3 99 1007.1 8.3 S 9.8 0.0 0.1
06:05 6.4 6.3 99 1007.2 10.7 SW 10.7 0.0 0.1
06:06 6.5 6.4 99 1007.2 11.4 SW 11.4 0.0 0.1
06:07 6.4 6.3 99 1007.1 9.8 N 11.4 0.0 0.1
06:08 6.4 6.3 99 1007.1 9.2 W 11.4 0.0 0.1
06:09 6.4 6.3 99 1007.2 7.6 SW 11.4 0.0 0.1
06:10 6.5 6.4 99 1007.1 13.0 WNW 13.6 0.0 0.1
06:11 6.4 6.3 99 1007.2 11.4 WNW 13.6 0.0 0.1
06:13 6.5 6.4 99 1007.2 9.2 SW 13.6 0.0 0.1
06:14 6.5 6.4 99 1007.2 8.3 W 13.6 0.0 0.1
06:16 6.5 6.4 99 1007.2 9.8 NW 13.6 0.0 0.1
06:18 6.5 6.4 99 1007.2 8.3 SW 13.6 0.0 0.1
06:19 6.5 6.4 99 1007.3 10.7 NW 13.6 0.0 0.1
06:21 6.5 6.4 99 1007.4 8.3 SW 11.4 0.0 0.1
06:22 6.5 6.4 99 1007.4 9.2 W 11.4 0.0 0.1
06:24 6.5 6.4 99 1007.4 6.9 SW 10.7 0.0 0.1
06:25 6.4 6.3 99 1007.5 8.3 W 10.7 0.0 0.1
06:26 6.4 6.3 99 1007.2 6.9 SW 10.7 0.0 0.1
06:27 6.4 6.3 99 1007.5 6.9 W 10.7 0.0 0.1
06:29 6.4 6.3 99 1007.5 6.9 W 10.7 0.0 0.1
06:30 6.4 6.3 99 1007.4 6.9 W 9.8 0.0 0.1
06:31 6.4 6.3 99 1007.5 7.6 W 9.8 0.0 0.1
06:32 6.4 6.3 99 1007.6 6.9 W 9.8 0.0 0.1
06:33 6.4 6.3 99 1007.6 8.3 SW 9.8 0.0 0.1
06:34 6.4 6.3 99 1007.5 6.9 SW 9.8 0.0 0.1
06:35 6.3 6.2 99 1007.6 6.9 SW 9.8 0.0 0.1
06:36 6.3 6.2 99 1007.6 8.3 W 8.3 0.0 0.1
06:37 6.3 6.2 99 1007.7 6.0 SW 8.3 0.0 0.1
06:38 6.3 6.2 99 1007.7 5.4 SW 8.3 0.0 0.1
06:39 6.3 6.2 99 1007.7 5.4 W 8.3 0.0 0.1
06:40 6.2 6.1 99 1007.7 6.0 SW 8.3 0.0 0.1
06:41 6.2 6.1 99 1007.7 6.0 SW 8.3 0.0 0.1
06:42 6.2 6.1 99 1007.7 7.6 SW 8.3 0.0 0.1
06:44 6.2 6.1 99 1007.7 6.9 W 8.3 0.0 0.1
06:45 6.2 6.1 99 1007.9 7.6 W 8.3 0.0 0.1
06:46 6.2 6.1 99 1007.8 8.3 SW 8.3 0.0 0.1
06:47 6.1 6.0 99 1008.0 4.5 SW 8.3 0.0 0.1
06:48 6.1 6.0 99 1008.0 6.9 SW 8.3 0.0 0.1
06:49 6.1 6.0 99 1007.9 6.0 SW 8.3 0.0 0.1
06:50 6.0 5.9 99 1008.2 6.0 SW 8.3 0.0 0.1
06:51 6.2 6.1 99 1008.1 6.9 W 8.3 0.0 0.1
06:52 6.1 6.0 99 1008.2 5.4 SW 8.3 0.0 0.1
06:53 6.0 5.9 99 1008.0 8.3 SW 8.3 0.0 0.1
06:54 6.2 6.1 99 1008.2 7.6 W 8.3 0.0 0.1
06:55 6.0 5.9 99 1008.2 9.2 NW 9.2 0.0 0.1
06:56 6.2 6.1 99 1008.2 9.2 W 9.2 0.0 0.1
06:57 6.0 5.9 99 1008.2 11.4 SW 11.4 0.0 0.1
06:58 6.0 5.9 99 1008.4 10.7 WNW 11.4 0.0 0.1
06:59 6.0 5.9 99 1008.4 9.8 SW 11.4 0.0 0.1
07:00 6.0 5.9 99 1008.3 9.8 SW 11.4 0.0 0.1
07:01 6.0 5.9 99 1008.3 9.8 SW 11.4 0.0 0.1
07:02 6.0 5.9 99 1008.4 9.8 SW 11.4 0.0 0.1
07:03 6.0 5.9 99 1008.4 9.8 SW 11.4 0.0 0.1
07:04 6.0 5.9 99 1008.2 8.3 SW 11.4 0.0 0.1
07:05 6.0 5.9 99 1008.3 8.3 N 11.4 0.0 0.1
07:06 6.0 5.9 99 1008.4 13.0 W 13.0 0.0 0.1
07:07 5.9 5.8 99 1008.4 8.3 W 13.0 0.0 0.1
07:08 5.9 5.8 99 1008.3 6.9 W 13.0 0.0 0.1
07:09 5.9 5.8 99 1008.4 9.8 SW 13.0 0.0 0.1
07:10 5.9 5.8 99 1008.6 9.8 W 13.0 0.0 0.1
07:11 5.9 5.8 99 1008.4 9.2 W 13.0 0.0 0.1
07:12 5.9 5.8 99 1008.6 8.3 SW 13.0 0.0 0.1
07:13 5.8 5.7 99 1008.5 8.3 SW 13.0 0.0 0.1
07:14 5.8 5.7 99 1008.6 7.6 SW 13.0 0.0 0.1
07:15 5.8 5.7 99 1008.6 6.9 SW 13.0 0.0 0.1
07:16 5.8 5.7 99 1008.6 6.9 W 13.0 0.0 0.1
07:17 5.8 5.7 99 1008.7 6.9 N 9.8 0.0 0.1
07:19 5.8 5.7 99 1008.7 9.8 SW 9.8 0.0 0.1
07:20 5.8 5.7 99 1008.6 8.3 SW 9.8 0.0 0.1
07:21 5.8 5.7 99 1008.8 8.3 W 9.8 0.0 0.1
07:22 5.7 5.6 99 1008.8 9.8 W 9.8 0.0 0.1
07:23 5.7 5.6 99 1008.7 7.6 W 9.8 0.0 0.1
07:24 5.7 5.6 99 1008.8 7.6 SW 9.8 0.0 0.1
07:25 5.7 5.6 99 1008.7 9.8 NNW 9.8 0.0 0.1
07:26 5.7 5.6 99 1008.8 7.6 NNW 9.8 0.0 0.1
07:28 5.6 5.5 99 1008.7 7.6 N 9.8 0.0 0.1
07:29 5.6 5.5 99 1008.7 5.4 N 9.8 0.0 0.1
07:30 5.6 5.5 99 1008.8 5.4 N 9.8 0.0 0.1
07:31 5.6 5.5 99 1008.8 5.4 W 9.8 0.0 0.1
07:32 5.6 5.5 99 1008.9 4.5 W 9.8 0.0 0.1
07:33 5.5 5.4 99 1009.0 3.8 W 9.8 0.0 0.1
07:35 5.5 5.4 99 1009.1 5.4 SW 9.8 0.0 0.1
07:36 5.5 5.4 99 1009.0 7.6 W 7.6 0.0 0.1
07:37 5.5 5.4 99 1009.1 8.3 W 8.3 0.0 0.1
07:38 5.5 5.4 99 1009.1 6.0 SW 8.3 0.0 0.1
07:39 5.4 5.3 99 1009.2 3.8 SW 8.3 0.0 0.1
07:40 5.4 5.3 99 1009.3 5.4 S 8.3 0.0 0.1
07:41 5.4 5.3 99 1009.3 5.4 S 8.3 0.0 0.1
07:42 5.3 5.2 99 1009.3 6.0 SW 8.3 0.0 0.1
07:43 5.3 5.2 99 1009.4 5.4 W 8.3 0.0 0.1
07:44 5.3 5.2 99 1009.4 6.0 NW 8.3 0.0 0.1
07:46 5.3 5.2 99 1009.3 7.6 S 8.3 0.0 0.1
07:47 5.2 5.1 99 1009.5 6.9 SW 7.6 0.0 0.1
07:48 5.2 5.1 99 1009.4 5.4 SW 7.6 0.0 0.1
07:49 5.2 5.1 99 1009.4 6.0 SW 7.6 0.0 0.1
07:50 5.2 5.1 99 1009.6 4.5 N 7.6 0.0 0.1
07:51 5.1 5.0 99 1009.5 6.0 W 7.6 0.0 0.1
07:52 5.1 5.0 99 1009.6 4.5 W 7.6 0.0 0.1
07:53 5.1 5.0 99 1009.4 5.4 SW 7.6 0.0 0.1
07:54 5.1 5.0 99 1009.7 5.4 SW 7.6 0.0 0.1
07:56 5.1 5.0 99 1009.6 3.8 SW 6.9 0.0 0.1
07:57 5.1 5.0 99 1009.5 5.4 SW 6.9 0.0 0.1
07:58 5.1 5.0 99 1009.7 4.5 SW 6.0 0.0 0.1
07:59 5.0 4.9 99 1009.6 6.9 W 6.9 0.0 0.1
08:00 5.0 4.9 99 1009.6 6.9 W 6.9 0.0 0.1
08:01 5.0 4.9 99 1009.7 6.9 W 6.9 0.0 0.1
08:02 5.0 4.9 99 1009.7 6.9 W 6.9 0.0 0.1
08:03 5.0 4.9 99 1009.7 6.9 W 6.9 0.0 0.1
08:04 5.0 4.9 99 1009.8 6.9 W 6.9 0.0 0.1
08:05 5.0 4.9 99 1009.8 6.9 W 6.9 0.0 0.1
08:06 5.0 4.9 99 1009.9 4.5 SW 7.6 0.0 0.1
08:07 5.0 4.9 99 1009.8 4.5 SW 7.6 0.0 0.1
08:08 5.0 4.9 99 1009.9 3.1 SW 7.6 0.0 0.1
08:09 4.9 4.8 99 1009.9 4.5 SW 7.6 0.0 0.1
08:10 4.9 4.8 99 1009.9 5.4 SW 7.6 0.0 0.1
08:11 5.0 4.9 99 1010.0 6.9 SW 7.6 0.0 0.1
08:12 4.9 4.8 99 1010.0 7.6 N 7.6 0.0 0.1
08:14 5.0 4.9 99 1009.9 5.4 SW 7.6 0.0 0.1
08:15 5.0 4.9 99 1010.0 6.0 SW 7.6 0.0 0.1
08:17 5.0 4.9 99 1010.0 7.6 W 7.6 0.0 0.1
08:18 5.1 5.0 99 1010.2 7.6 W 7.6 0.0 0.1
08:20 5.1 5.0 99 1010.2 13.6 NW 13.6 0.0 0.1
08:21 5.2 5.1 99 1010.5 15.2 SW 18.3 0.0 0.2
08:22 5.2 5.1 99 1010.5 14.5 W 18.3 1.5 0.3
08:24 5.3 5.2 99 1010.7 10.7 W 18.3 3.0 0.3
08:25 5.3 5.2 99 1010.7 16.8 SW 18.3 3.0 0.4
08:27 5.2 5.1 99 1010.6 15.2 W 18.3 2.3 0.4
08:28 5.2 5.1 99 1010.5 11.4 SW 18.3 1.5 0.4
08:29 5.2 5.1 99 1010.6 11.4 W 18.3 1.5 0.4
08:30 5.2 5.1 99 1010.4 13.0 SW 18.3 1.5 0.4
08:31 5.2 5.1 99 1010.6 11.4 W 16.8 0.8 0.4
08:32 5.1 5.0 99 1010.7 12.1 W 16.8 0.8 0.4
08:33 5.1 5.0 99 1010.7 11.4 W 16.8 0.0 0.4
08:34 5.1 5.0 99 1010.6 9.2 SW 16.8 0.0 0.4
08:35 5.1 5.0 99 1010.5 6.9 SW 16.8 0.0 0.4
08:36 5.1 5.0 99 1010.6 8.3 SW 15.2 0.0 0.4
08:38 5.0 4.9 99 1010.6 9.2 N 14.5 0.0 0.4
08:39 5.0 4.9 99 1010.7 6.0 N 13.0 0.0 0.4
08:40 5.0 4.9 99 1010.6 8.3 N 13.0 0.0 0.4
08:41 5.0 4.9 99 1010.6 8.3 N 12.1 0.0 0.4
08:42 5.0 4.9 99 1010.6 5.4 N 12.1 0.0 0.4
08:43 5.0 4.9 99 1010.6 6.9 N 11.4 0.0 0.4
08:44 5.0 4.9 99 1010.7 5.4 N 9.2 0.0 0.4
08:45 5.0 4.9 99 1010.7 5.4 N 9.2 0.0 0.4
08:46 5.0 4.9 99 1010.8 5.4 N 9.2 0.0 0.4
08:47 5.0 4.9 99 1010.8 6.0 S 9.2 0.0 0.4
08:48 4.9 4.8 99 1010.7 4.5 S 9.2 0.0 0.4
08:49 5.0 4.9 99 1010.8 6.0 S 8.3 0.0 0.4
08:50 5.0 4.9 99 1011.0 4.5 S 8.3 0.0 0.4
08:51 5.0 4.9 99 1011.0 4.5 S 6.9 0.0 0.4
08:52 5.0 4.9 99 1011.0 5.4 S 6.9 0.0 0.4
08:53 5.0 4.9 99 1010.9 6.0 S 6.9 0.0 0.4
08:54 5.0 4.9 99 1011.1 7.6 S 7.6 0.0 0.4
08:55 5.0 4.9 99 1011.2 5.4 N 7.6 0.0 0.4
08:56 5.0 4.9 99 1011.0 3.8 SW 7.6 0.0 0.4
08:57 5.0 4.9 99 1011.0 6.0 SW 7.6 0.0 0.4
08:58 5.0 4.9 99 1010.9 4.5 N 7.6 0.0 0.4
08:59 5.0 4.9 99 1011.1 6.0 N 7.6 0.0 0.4
09:00 5.0 4.9 99 1011.0 6.0 N 7.6 0.0 0.4
09:01 5.0 4.9 99 1011.2 6.0 N 7.6 0.0 0.4
09:02 5.0 4.9 99 1011.2 6.0 N 7.6 0.0 0.4
09:03 5.0 4.9 99 1011.1 6.0 N 7.6 0.0 0.4
09:04 5.0 4.9 99 1011.1 4.5 W 7.6 0.0 0.4
09:05 5.0 4.9 99 1011.1 3.8 W 6.0 0.0 0.4
09:06 5.0 4.9 99 1011.2 3.8 N 6.0 0.0 0.4
09:07 5.0 4.9 99 1011.2 5.4 N 6.0 0.0 0.4
09:08 5.0 4.9 99 1011.3 6.0 N 6.9 0.0 0.4
09:09 5.1 5.0 99 1011.2 4.5 W 6.9 0.0 0.4
09:10 5.1 5.0 99 1011.2 4.5 W 6.9 0.0 0.4
09:11 5.1 5.0 99 1011.2 6.0 NW 6.9 0.0 0.4
09:12 5.1 5.0 99 1011.2 7.6 N 8.3 0.0 0.4
09:13 5.1 5.0 99 1011.2 8.3 N 8.3 0.0 0.4
09:14 5.1 5.0 99 1011.3 6.9 W 8.3 0.0 0.4
09:15 5.1 5.0 99 1011.1 6.9 W 8.3 0.0 0.4
09:17 5.2 5.1 99 1011.3 6.9 W 8.3 0.0 0.4
09:18 5.2 5.1 99 1011.3 9.8 W 9.8 0.0 0.4
09:19 5.2 5.1 99 1011.2 9.8 N 9.8 0.0 0.4
09:20 5.2 5.1 99 1011.2 9.2 W 9.8 0.0 0.4
09:21 5.2 5.1 99 1011.3 8.3 W 9.8 0.0 0.4
09:22 5.3 5.2 99 1011.4 8.3 W 9.8 0.0 0.4
09:23 5.3 5.2 99 1011.4 5.4 W 9.8 0.0 0.4
09:24 5.3 5.2 99 1011.3 5.4 S 9.8 0.0 0.4
09:25 5.3 5.2 99 1011.4 5.4 S 9.8 0.0 0.4
09:26 5.3 5.2 99 1011.4 6.9 N 9.8 0.0 0.4
09:27 5.3 5.2 99 1011.5 8.3 N 9.8 0.0 0.4
09:28 5.4 5.3 99 1011.6 8.3 N 9.8 0.0 0.4
09:29 5.4 5.3 99 1011.6 9.2 S 9.8 0.0 0.4
09:30 5.5 5.4 99 1011.4 9.2 N 9.2 0.0 0.4
09:31 5.5 5.4 99 1011.5 9.2 N 9.2 0.0 0.4
09:32 5.5 5.4 99 1011.6 5.4 N 9.2 0.0 0.4
09:33 5.5 5.4 99 1011.5 6.0 N 9.2 0.0 0.4
09:34 5.6 5.5 99 1011.5 7.6 N 9.2 0.0 0.4
09:35 5.6 5.5 99 1011.6 5.4 N 9.2 0.0 0.4
09:36 5.6 5.5 99 1011.6 7.6 N 9.2 0.0 0.4
09:37 5.6 5.5 99 1011.6 7.6 N 9.2 0.0 0.4
09:38 5.7 5.6 99 1011.7 8.3 N 9.2 0.0 0.4
09:39 5.6 5.5 99 1011.6 10.7 SW 10.7 0.0 0.4
09:40 5.8 5.7 99 1011.6 10.7 W 10.7 0.0 0.4
09:41 5.7 5.6 99 1011.8 7.6 SW 10.7 0.0 0.4
09:43 5.8 5.7 99 1011.7 10.7 SW 13.0 0.0 0.4
09:44 5.8 5.7 99 1011.6 9.8 SW 13.0 0.0 0.4
09:45 5.8 5.7 99 1011.8 10.7 W 13.0 0.0 0.4
09:46 5.9 5.8 99 1011.7 9.2 W 13.0 0.0 0.4
09:47 5.9 5.8 99 1012.0 7.6 SW 13.0 0.0 0.4
09:48 6.0 5.9 99 1011.9 9.2 W 13.0 0.0 0.4
09:49 6.0 5.9 99 1011.8 9.2 W 13.0 0.0 0.4
09:50 6.0 5.9 99 1011.9 12.1 W 13.0 0.0 0.4
09:51 6.1 6.0 99 1011.9 15.2 N 15.2 0.0 0.4
09:52 6.1 6.0 99 1012.1 12.1 S 15.2 0.0 0.4
09:53 6.1 6.0 99 1012.0 13.0 SW 15.2 0.0 0.4
09:54 6.2 6.1 99 1012.0 11.4 W 15.2 0.0 0.4
09:55 6.3 6.2 99 1012.1 13.6 SW 16.8 0.0 0.4
09:56 6.3 6.2 99 1012.1 12.1 SW 16.8 0.0 0.4
09:57 6.3 6.2 99 1012.2 9.2 SW 16.8 0.0 0.4
09:58 6.3 6.2 99 1012.2 9.8 SW 16.8 0.0 0.4
09:59 6.4 6.3 99 1012.2 9.8 SW 16.8 0.0 0.4
10:01 6.5 6.4 99 1012.2 12.1 W 16.8 0.0 0.4
10:02 6.5 6.4 99 1012.1 10.7 SW 16.8 0.0 0.4
10:03 6.6 6.5 99 1012.2 12.1 SW 16.8 0.0 0.4
10:04 6.6 6.5 99 1012.2 8.3 W 16.8 0.0 0.4
10:05 6.6 6.5 99 1012.2 11.4 W 16.8 0.0 0.4
10:06 6.7 6.6 99 1012.2 7.6 W 13.0 0.0 0.4
10:07 6.6 6.5 99 1012.3 10.7 W 13.0 0.0 0.4
10:08 6.7 6.6 99 1012.3 9.2 SW 13.0 0.0 0.4
10:09 6.7 6.6 99 1012.3 10.7 SW 13.0 0.0 0.4
10:10 6.7 6.6 99 1012.2 13.0 SW 13.0 0.0 0.4
10:11 6.7 6.6 99 1012.1 12.1 W 13.0 0.0 0.4
10:13 6.7 6.6 99 1012.4 13.0 SW 13.0 0.0 0.4
10:14 6.7 6.6 99 1012.3 13.6 SW 13.6 0.0 0.4
10:16 6.7 6.6 99 1012.5 9.2 W 13.6 0.0 0.4
10:17 6.7 6.6 99 1012.5 11.4 SW 13.6 0.0 0.4
10:18 6.7 6.6 99 1012.5 11.4 W 13.6 0.0 0.4
10:20 6.6 6.5 99 1012.5 7.6 SW 13.6 0.0 0.4
10:22 6.8 6.7 99 1012.6 11.4 SW 13.6 0.0 0.4
10:23 6.8 6.7 99 1012.5 11.4 SW 13.6 0.0 0.4
10:24 6.8 6.7 99 1012.7 13.6 SW 13.6 0.0 0.4
10:26 6.8 6.7 99 1012.5 12.1 W 15.9 0.0 0.4
10:27 6.8 6.7 99 1012.6 15.2 SW 15.9 0.0 0.4
10:29 6.8 6.7 99 1012.6 11.4 S 15.9 0.0 0.4
10:30 6.9 6.8 99 1012.6 13.6 SW 15.9 0.0 0.4
10:32 6.9 6.8 99 1012.6 10.7 W 15.9 0.0 0.4
10:33 7.0 6.9 99 1012.6 14.5 W 15.9 0.0 0.4
10:34 7.0 6.9 99 1012.6 13.6 SW 15.9 0.0 0.4
10:35 7.1 7.0 99 1012.7 11.4 SW 15.9 0.0 0.4
10:36 7.1 7.0 99 1012.7 13.6 S 15.2 0.0 0.4
10:37 7.1 7.0 99 1012.7 7.6 W 15.2 0.0 0.4
10:38 7.2 7.1 99 1012.7 9.2 SW 14.5 0.0 0.4
10:39 7.2 7.1 99 1012.6 11.4 SW 14.5 0.0 0.4
10:40 7.2 7.1 99 1012.8 11.4 SW 14.5 0.0 0.4
10:41 7.2 7.1 99 1012.6 13.6 W 14.5 0.0 0.4
10:42 7.3 7.2 99 1012.7 12.1 SW 14.5 0.0 0.4
10:43 7.2 7.1 99 1012.8 10.7 SW 13.6 0.0 0.4
10:44 7.3 7.2 99 1012.9 9.8 SW 13.6 0.0 0.4
10:45 7.3 7.2 99 1012.9 9.8 SW 13.6 0.0 0.4
10:46 7.2 7.1 99 1012.9 10.7 SW 13.6 0.0 0.4
10:47 7.2 7.1 99 1012.8 10.7 SW 13.6 0.0 0.4
10:48 7.2 7.1 99 1012.8 9.2 SW 13.6 0.0 0.4
10:49 7.2 7.1 99 1012.9 11.4 SW 13.6 0.0 0.4
10:50 7.2 7.1 99 1012.9 15.9 SW 15.9 0.0 0.4
10:51 7.2 7.1 99 1013.0 13.6 SW 17.4 0.0 0.4
10:52 7.3 7.2 99 1013.0 13.0 SW 17.4 0.0 0.4
10:53 7.3 7.2 99 1012.7 16.8 SW 17.4 0.0 0.4
10:54 7.3 7.2 99 1012.9 11.4 SW 17.4 0.0 0.4
10:55 7.3 7.0 98 1013.0 15.9 SW 17.4 0.0 0.4
10:56 7.3 7.0 98 1013.1 18.3 SW 18.3 0.0 0.4
10:57 7.3 6.9 97 1013.0 16.8 SW 18.3 0.0 0.4
10:58 7.4 7.0 97 1012.9 11.4 SW 18.3 0.0 0.4
11:00 7.3 6.9 97 1012.9 10.7 W 18.3 0.0 0.4
11:01 7.3 6.9 97 1012.9 10.7 W 18.3 0.0 0.4
11:02 7.3 6.9 97 1013.0 10.7 W 18.3 0.0 0.4
11:03 7.3 6.9 97 1013.2 10.7 W 18.3 0.0 0.4
11:04 7.4 6.7 95 1013.0 14.5 SW 18.3 0.0 0.4
11:05 7.4 6.5 94 1013.0 13.6 SW 18.3 0.0 0.4
11:06 7.4 6.5 94 1013.0 11.4 S 18.3 0.0 0.4
11:07 7.5 6.6 94 1013.1 11.4 SW 16.8 0.0 0.4
11:08 7.5 6.4 93 1013.0 15.2 SW 15.2 0.0 0.4
11:09 7.6 6.5 93 1013.1 15.9 SW 15.9 0.0 0.4
11:10 7.6 6.5 93 1013.3 13.0 SW 15.9 0.0 0.4
11:11 7.7 6.5 92 1013.2 14.5 SW 15.9 0.0 0.4
11:12 7.7 6.5 92 1013.2 12.1 SW 15.9 0.0 0.4
11:13 7.8 6.6 92 1013.3 16.8 SW 16.8 0.0 0.4
11:14 7.8 6.4 91 1013.1 15.2 W 16.8 0.0 0.4
11:15 7.8 6.3 90 1013.2 15.2 SW 16.8 0.0 0.4
11:16 7.8 6.3 90 1013.2 19.0 SW 19.0 0.0 0.4
11:17 7.8 6.3 90 1013.4 13.0 SW 19.0 0.0 0.4
11:18 7.9 6.4 90 1013.4 12.1 W 19.0 0.0 0.4
11:19 7.9 6.2 89 1013.3 10.7 W 19.0 0.0 0.4
11:20 7.9 6.4 90 1013.3 14.5 SW 19.0 0.0 0.4
11:21 7.9 6.4 90 1013.3 14.5 SW 19.0 0.0 0.4
11:22 7.9 6.2 89 1013.2 14.5 SW 19.0 0.0 0.4
11:23 7.9 6.2 89 1013.4 13.0 SW 19.0 0.0 0.4
11:24 8.0 6.3 89 1013.3 13.6 S 19.0 0.0 0.4
11:25 8.0 6.3 89 1013.2 15.9 SW 19.0 0.0 0.4
11:26 8.0 6.3 89 1013.5 14.5 SW 16.8 0.0 0.4
11:27 8.0 6.3 89 1013.4 17.4 SW 17.4 0.0 0.4
11:28 7.9 6.2 89 1013.4 15.2 S 17.4 0.0 0.4
11:29 7.9 6.2 89 1013.6 15.2 N 17.4 0.0 0.4
11:31 7.9 6.0 88 1013.6 12.1 W 17.4 0.0 0.4
11:32 7.9 6.2 89 1013.5 13.6 W 17.4 0.0 0.4
11:33 7.9 6.2 89 1013.4 9.2 W 17.4 0.0 0.4
11:34 7.9 6.0 88 1013.6 17.4 SW 17.4 0.0 0.4
11:35 7.8 5.9 88 1013.5 15.2 SW 17.4 0.0 0.4
11:36 7.8 5.9 88 1013.5 13.6 SW 17.4 0.0 0.4
11:37 7.8 5.9 88 1013.5 13.6 SW 17.4 0.0 0.4
11:38 7.7 5.8 88 1013.6 14.5 SW 17.4 0.0 0.4
11:39 7.7 5.8 88 1013.6 16.8 SW 17.4 0.0 0.4
11:40 7.6 5.7 88 1013.5 14.5 W 17.4 0.0 0.4
11:41 7.6 5.6 87 1013.5 15.2 W 17.4 0.0 0.4
11:42 7.6 5.4 86 1013.6 14.5 SW 17.4 0.0 0.4
11:43 7.6 5.4 86 1013.6 18.3 SW 18.3 0.0 0.4
11:44 7.6 5.6 87 1013.7 13.6 SW 18.3 0.0 0.4
11:45 7.6 5.4 86 1013.7 15.2 W 18.3 0.0 0.4
11:46 7.7 5.5 86 1013.6 12.1 SW 18.3 0.0 0.4
11:47 7.7 5.5 86 1013.6 10.7 W 18.3 0.0 0.4
11:48 7.8 5.6 86 1013.6 13.0 SW 18.3 0.0 0.4
11:49 7.8 5.4 85 1013.6 11.4 W 18.3 0.0 0.4
11:50 8.0 5.8 86 1013.7 17.4 SW 18.3 0.0 0.4
11:51 8.0 5.6 85 1013.7 18.3 SW 18.3 0.0 0.4
11:52 8.1 5.7 85 1013.6 16.8 SW 18.3 0.0 0.4
11:53 8.1 5.7 85 1013.7 14.5 W 18.3 0.0 0.4
11:54 8.1 5.7 85 1013.7 9.2 WNW 18.3 0.0 0.4
11:55 8.1 5.7 85 1013.7 13.0 WNW 18.3 0.0 0.4
11:56 8.1 5.7 85 1013.8 16.8 SW 18.3 0.0 0.4
11:57 8.0 5.6 85 1013.9 14.5 SW 18.3 0.0 0.4
11:58 8.0 5.6 85 1013.8 9.8 S 18.3 0.0 0.4
12:00 8.0 5.5 84 1013.8 14.5 S 18.3 0.0 0.4
12:01 8.0 5.5 84 1013.7 14.5 NW 18.3 0.0 0.4
12:02 8.0 5.5 84 1013.8 15.2 S 16.8 0.0 0.4
12:03 8.0 5.3 83 1013.8 17.4 SW 17.4 0.0 0.4
12:04 7.9 5.2 83 1013.9 15.2 SW 17.4 0.0 0.4
12:05 7.9 5.2 83 1014.0 16.8 SW 17.4 0.0 0.4
12:06 8.0 5.3 83 1013.8 11.4 S 17.4 0.0 0.4
12:07 8.0 5.3 83 1013.8 10.7 SW 17.4 0.0 0.4
12:08 8.0 5.3 83 1013.9 15.9 S 17.4 0.0 0.4
12:09 8.0 5.3 83 1013.9 19.0 S 19.0 0.0 0.4
12:10 8.0 5.1 82 1013.8 14.5 NW 19.0 0.0 0.4
12:11 8.0 5.1 82 1013.8 13.0 W 19.0 0.0 0.4
12:13 8.1 5.2 82 1013.9 15.2 W 19.0 0.0 0.4
12:15 8.2 5.3 82 1014.0 16.8 SW 19.0 0.0 0.4
12:16 8.3 5.4 82 1013.9 14.5 SW 19.0 0.0 0.4
12:18 8.5 5.6 82 1013.8 20.6 SW 20.6 0.0 0.4
12:19 8.6 5.7 82 1013.8 16.8 SW 20.6 0.0 0.4
12:21 8.7 5.8 82 1014.0 16.8 SW 20.6 0.0 0.4
12:22 8.8 5.7 81 1013.9 20.6 W 20.6 0.0 0.4
12:24 8.9 5.8 81 1014.0 15.9 SW 20.6 0.0 0.4
12:25 8.9 5.6 80 1014.0 16.8 S 20.6 0.0 0.4
12:27 9.0 5.7 80 1014.2 13.6 W 20.6 0.0 0.4
12:28 8.9 5.6 80 1014.0 18.3 NW 20.6 0.0 0.4
12:30 8.8 5.4 79 1014.2 19.0 SW 20.6 0.0 0.4
12:31 8.7 5.3 79 1014.2 19.7 SW 20.6 0.0 0.4
12:32 8.6 5.0 78 1014.1 15.9 NW 20.6 0.0 0.4
12:33 8.5 4.9 78 1014.2 13.6 W 19.7 0.0 0.4
12:34 8.4 4.8 78 1014.1 13.0 W 19.7 0.0 0.4
12:35 8.3 4.7 78 1014.1 13.6 SW 19.7 0.0 0.4
12:36 8.2 4.6 78 1014.2 12.1 SW 19.7 0.0 0.4
12:37 8.2 4.6 78 1014.2 14.5 SW 19.7 0.0 0.4
12:38 8.2 4.6 78 1014.0 16.8 S 19.7 0.0 0.4
12:39 8.2 4.6 78 1014.2 14.5 SW 19.7 0.0 0.4
12:40 8.3 4.7 78 1014.1 13.6 WNW 19.7 0.0 0.4
12:41 8.4 4.8 78 1014.2 18.3 SW 19.7 0.0 0.4
12:42 8.5 4.9 78 1014.2 20.6 SW 20.6 0.0 0.4
12:43 8.5 4.9 78 1014.2 21.3 W 21.3 0.0 0.4
12:44 8.7 4.9 77 1014.2 16.8 NW 21.3 0.0 0.4
12:45 8.7 4.7 76 1014.1 19.0 W 21.3 0.0 0.4
12:46 8.7 4.7 76 1014.2 20.6 NW 21.3 0.0 0.4
12:47 8.8 4.8 76 1014.2 17.4 SW 21.3 0.0 0.4
12:49 8.8 4.8 76 1014.1 16.8 SW 21.3 0.0 0.4
12:50 8.8 4.8 76 1014.2 16.8 S 21.3 0.0 0.4
12:51 8.9 4.7 75 1014.3 19.7 SW 21.3 0.0 0.4
12:52 8.9 4.7 75 1014.2 13.0 W 21.3 0.0 0.4
12:53 8.9 4.7 75 1014.3 18.3 S 21.3 0.0 0.4
12:54 9.0 4.6 74 1014.2 20.6 W 20.6 0.0 0.4
12:55 9.0 4.8 75 1014.2 18.3 SW 20.6 0.0 0.4
12:56 9.1 4.7 74 1014.2 16.8 NW 20.6 0.0 0.4
12:57 9.1 4.7 74 1014.2 18.3 SW 20.6 0.0 0.4
12:58 9.1 4.5 73 1014.3 13.0 W 20.6 0.0 0.4
12:59 9.1 4.5 73 1014.3 12.1 SW 20.6 0.0 0.4
13:00 9.1 4.5 73 1014.3 12.1 SW 20.6 0.0 0.4
13:01 9.3 4.7 73 1014.2 20.6 SW 20.6 0.0 0.4
13:02 9.3 4.7 73 1014.3 22.1 SW 22.1 0.0 0.4
13:03 9.3 4.9 74 1014.3 15.9 WNW 22.1 0.0 0.4
13:04 9.3 4.9 74 1014.4 19.0 SW 22.1 0.0 0.4
13:05 9.3 4.9 74 1014.2 16.8 NW 22.1 0.0 0.4
13:06 9.3 4.9 74 1014.4 15.9 S 22.1 0.0 0.4
13:08 9.3 4.9 74 1014.4 18.3 SE 22.1 0.0 0.4
13:09 9.3 4.7 73 1014.3 14.5 SW 22.1 0.0 0.4
13:10 9.3 4.9 74 1014.3 16.8 SW 22.1 0.0 0.4
13:11 9.3 4.9 74 1014.3 17.4 NE 22.1 0.0 0.4
13:12 9.3 4.9 74 1014.3 15.9 SW 22.1 0.0 0.4
13:13 9.4 5.0 74 1014.3 17.4 SW 19.0 0.0 0.4
13:14 9.4 5.0 74 1014.4 17.4 W 19.7 0.0 0.4
13:15 9.5 5.1 74 1014.4 16.8 W 19.7 0.0 0.4
13:16 9.5 5.1 74 1014.4 15.2 SW 19.7 0.0 0.4
13:17 9.5 5.1 74 1014.3 20.6 S 20.6 0.0 0.4
13:18 9.5 5.1 74 1014.4 19.0 S 20.6 0.0 0.4
13:19 9.4 5.0 74 1014.6 14.5 W 20.6 0.0 0.4
13:20 9.3 5.1 75 1014.6 14.5 NNW 20.6 0.0 0.4
13:21 9.3 5.1 75 1014.6 15.9 SW 20.6 0.0 0.4
13:22 9.3 5.1 75 1014.6 15.2 SW 20.6 0.0 0.4
13:23 9.1 4.9 75 1014.5 13.0 SW 20.6 0.0 0.4
13:25 9.1 4.9 75 1014.7 9.8 SW 20.6 0.0 0.4
13:26 9.0 4.8 75 1014.7 14.5 SW 20.6 0.0 0.4
13:27 8.9 4.9 76 1014.6 10.7 SW 20.6 0.0 0.4
13:28 8.8 4.8 76 1014.7 13.6 SW 19.0 0.0 0.4
13:29 8.7 4.7 76 1014.6 13.0 SW 16.8 0.0 0.4
13:30 8.7 4.9 77 1014.6 14.5 W 16.8 0.0 0.4
13:31 8.8 5.0 77 1014.7 17.4 SW 17.4 0.0 0.4
13:32 8.9 5.1 77 1014.5 15.2 NW 17.4 0.0 0.4
13:33 8.9 5.3 78 1014.6 13.0 SW 17.4 0.0 0.4
13:34 9.0 5.6 79 1014.7 11.4 W 17.4 0.0 0.4
13:35 9.2 5.4 77 1014.7 15.2 W 17.4 0.0 0.4
13:36 9.2 5.4 77 1014.7 16.8 SW 17.4 0.0 0.4
13:38 9.2 5.2 76 1014.6 15.9 SW 17.4 0.0 0.4
13:39 9.2 5.2 76 1014.7 10.7 W 17.4 0.0 0.4
13:40 9.2 5.2 76 1014.7 11.4 W 17.4 0.0 0.4
13:41 9.2 5.2 76 1014.7 14.5 S 17.4 0.0 0.4
13:42 9.2 5.2 76 1014.7 13.6 N 17.4 0.0 0.4
13:43 9.2 5.2 76 1014.7 8.3 NW 17.4 0.0 0.4
13:44 9.3 5.5 77 1014.7 15.2 SW 17.4 0.0 0.4
13:45 9.4 5.6 77 1014.7 13.0 SW 17.4 0.0 0.4
13:46 9.5 5.7 77 1014.6 19.7 W 19.7 0.0 0.4
13:47 9.5 5.3 75 1014.7 15.2 W 19.7 0.0 0.4
13:48 9.5 5.5 76 1014.8 10.7 SW 19.7 0.0 0.4
13:49 9.5 5.5 76 1014.7 18.3 SW 19.7 0.0 0.4
13:50 9.5 5.3 75 1014.8 18.3 SW 19.7 0.0 0.4
13:51 9.4 5.2 75 1014.7 16.8 W 19.7 0.0 0.4
13:52 9.3 5.1 75 1014.8 15.9 SW 19.7 0.0 0.4
13:53 9.1 4.9 75 1014.7 18.3 NW 19.7 0.0 0.4
13:54 9.0 4.6 74 1014.9 17.4 SW 19.7 0.0 0.4
13:55 8.8 4.4 74 1014.9 19.7 SW 19.7 0.0 0.4
13:56 8.7 4.1 73 1014.8 15.9 SW 19.7 0.0 0.4
13:57 8.6 4.0 73 1014.7 13.6 W 19.7 0.0 0.4
13:58 8.6 4.2 74 1014.8 13.6 NW 19.7 0.0 0.4
13:59 8.6 4.2 74 1014.9 15.2 WNW 19.7 0.0 0.4
14:00 8.7 4.3 74 1014.8 15.9 W 19.7 0.0 0.4
14:01 8.7 4.3 74 1014.8 14.5 SW 19.7 0.0 0.4
14:02 8.8 4.2 73 1014.8 19.0 SW 19.7 0.0 0.4
14:03 8.9 4.5 74 1014.8 18.3 SW 19.7 0.0 0.4
14:04 9.0 4.4 73 1015.1 18.3 SW 19.7 0.0 0.4
14:06 9.0 4.2 72 1014.7 17.4 SW 22.1 0.0 0.4
14:07 9.0 4.2 72 1014.9 13.6 SW 22.1 0.0 0.4
14:08 9.1 4.3 72 1014.8 14.5 W 22.1 0.0 0.4
14:10 9.1 4.1 71 1014.9 17.4 NW 22.1 0.0 0.4
14:11 9.1 4.3 72 1014.9 15.9 SW 22.1 0.0 0.4
14:13 9.2 4.2 71 1014.8 13.6 SW 22.1 0.0 0.4
14:15 9.2 4.4 72 1014.8 13.0 SW 22.1 0.0 0.4
14:16 9.2 4.4 72 1015.1 13.6 W 18.3 0.0 0.4
14:18 9.3 4.3 71 1015.1 13.6 W 18.3 0.0 0.4
14:19 9.2 4.2 71 1014.9 18.3 SW 19.0 0.0 0.4
14:21 9.1 3.9 70 1015.1 18.3 SW 19.0 0.0 0.4
14:22 9.0 3.8 70 1015.0 19.7 W 19.7 0.0 0.4
14:24 8.8 3.6 70 1015.0 19.0 W 24.4 0.0 0.4
14:25 8.8 3.6 70 1015.1 10.7 W 24.4 0.0 0.4
14:26 8.7 3.5 70 1015.2 15.2 W 24.4 0.0 0.4
14:27 8.7 3.7 71 1015.2 12.1 SW 24.4 0.0 0.4
14:29 8.7 3.9 72 1015.0 13.0 SW 24.4 0.0 0.4
14:30 8.7 3.9 72 1015.0 17.4 W 24.4 0.0 0.4
14:31 8.6 3.8 72 1015.2 13.0 W 24.4 0.0 0.4
14:32 8.6 3.6 71 1015.1 10.7 W 24.4 0.0 0.4
14:33 8.5 3.5 71 1015.0 15.2 WNW 24.4 0.0 0.4
14:34 8.5 3.7 72 1015.1 10.7 W 19.0 0.0 0.4
14:35 8.5 3.7 72 1014.9 14.5 NW 17.4 0.0 0.4
14:36 8.5 3.7 72 1015.1 18.3 SW 18.3 0.0 0.4
14:37 8.5 3.7 72 1015.3 16.8 W 18.3 0.0 0.4
14:38 8.6 4.0 73 1015.3 17.4 W 18.3 0.0 0.4
14:39 8.6 4.0 73 1015.2 13.6 SW 18.3 0.0 0.4
14:40 8.6 3.8 72 1015.2 15.2 NW 18.3 0.0 0.4
14:41 8.7 3.9 72 1015.1 13.6 W 18.3 0.0 0.4
14:42 8.8 4.0 72 1015.1 18.3 SW 20.6 0.0 0.4
14:43 8.8 4.0 72 1015.1 16.8 SW 20.6 0.0 0.4
14:44 8.9 4.1 72 1015.3 15.2 SW 20.6 0.0 0.4
14:45 8.9 4.3 73 1015.1 18.3 SW 20.6 0.0 0.4
14:46 9.0 4.2 72 1015.3 19.7 NW 20.6 0.0 0.4
14:47 9.0 4.2 72 1015.4 22.1 SW 22.1 0.0 0.4
14:49 9.0 4.2 72 1015.2 15.2 SW 22.1 0.0 0.4
14:50 9.0 4.2 72 1015.3 13.6 SW 22.1 0.0 0.4
14:51 9.0 4.2 72 1015.3 15.9 SW 22.1 0.0 0.4
14:52 8.9 4.3 73 1015.3 13.0 S 22.1 0.0 0.4
14:53 8.9 4.3 73 1015.3 13.0 W 22.1 0.0 0.4
14:54 8.8 4.2 73 1015.3 14.5 SW 22.1 0.0 0.4
14:55 8.8 4.0 72 1015.2 19.0 SW 22.1 0.0 0.4
14:56 8.7 3.9 72 1015.4 15.2 SW 22.1 0.0 0.4
14:57 8.7 3.9 72 1015.4 13.0 SW 22.1 0.0 0.4
14:58 8.7 3.9 72 1015.2 15.9 NW 19.0 0.0 0.4
14:59 8.8 4.0 72 1015.4 15.9 SW 19.0 0.0 0.4
15:00 8.8 3.8 71 1015.3 19.7 SW 19.7 0.0 0.4
15:01 8.8 3.8 71 1015.4 14.5 SW 19.7 0.0 0.4
15:02 8.8 3.8 71 1015.5 12.1 SW 19.7 0.0 0.4
15:03 8.8 4.0 72 1015.5 11.4 SW 19.7 0.0 0.4
15:04 8.8 4.0 72 1015.6 13.6 SW 19.7 0.0 0.4
15:05 8.8 4.0 72 1015.5 14.5 W 19.7 0.0 0.4
15:06 8.8 4.0 72 1015.6 15.9 SW 19.7 0.0 0.4
15:07 8.8 4.0 72 1015.7 22.1 SW 22.1 0.0 0.4
15:08 8.7 3.9 72 1015.7 20.6 SW 22.1 0.0 0.4
15:09 8.7 3.9 72 1015.5 15.9 S 22.1 0.0 0.4
15:11 8.6 3.8 72 1015.6 14.5 SW 22.1 0.0 0.4
15:12 8.5 3.7 72 1015.8 9.8 SW 22.1 0.0 0.4
15:13 8.5 3.7 72 1015.7 15.2 W 22.1 0.0 0.4
15:14 8.4 3.6 72 1015.7 17.4 W 22.1 0.0 0.4
15:15 8.4 3.6 72 1015.7 14.5 W 22.1 0.0 0.4
15:16 8.4 3.6 72 1015.9 19.0 SW 22.1 0.0 0.4
15:17 8.3 3.6 72 1015.8 15.9 W 22.1 0.0 0.4
15:18 8.3 3.6 72 1015.9 15.9 W 20.6 0.0 0.4
15:19 8.2 3.5 72 1015.7 15.2 SW 20.6 0.0 0.4
15:20 8.2 3.5 72 1015.8 17.4 SW 20.6 0.0 0.4
15:21 8.2 3.5 72 1015.9 18.3 SW 20.6 0.0 0.4
15:23 8.2 3.7 73 1015.9 15.9 W 20.6 0.0 0.4
15:24 8.2 3.8 74 1015.8 15.2 SW 20.6 0.0 0.4
15:25 8.3 3.9 74 1015.9 14.5 N 20.6 0.0 0.4
15:26 8.3 3.9 74 1016.1 10.7 W 20.6 0.0 0.4
15:27 8.4 4.0 74 1015.8 15.2 W 20.6 0.0 0.4
15:28 8.5 4.1 74 1016.0 15.9 W 20.6 0.0 0.4
15:30 8.5 4.1 74 1015.9 13.0 SW 18.3 0.0 0.4
15:31 8.6 4.2 74 1016.0 15.2 SW 18.3 0.0 0.4
15:33 8.7 4.1 73 1015.9 14.5 W 17.4 0.0 0.4
15:34 8.7 4.1 73 1015.8 19.0 SW 19.0 0.0 0.4
15:35 8.7 3.9 72 1016.0 20.6 SW 20.6 0.0 0.4
15:37 8.7 3.9 72 1015.8 16.8 W 20.6 0.0 0.4
15:38 8.7 3.9 72 1016.1 12.1 SW 20.6 0.0 0.4
15:39 8.7 3.9 72 1016.0 17.4 SW 20.6 0.0 0.4
15:40 8.7 3.9 72 1016.0 19.0 W 20.6 0.0 0.4
15:41 8.6 3.8 72 1016.0 16.8 SW 20.6 0.0 0.4
15:42 8.6 3.8 72 1016.1 19.7 SW 20.6 0.0 0.4
15:44 8.6 3.8 72 1016.1 17.4 SW 20.6 0.0 0.4
15:45 8.6 3.8 72 1016.1 15.2 SW 20.6 0.0 0.4
15:46 8.5 3.7 72 1016.2 14.5 SW 20.6 0.0 0.4
15:47 8.6 3.8 72 1016.2 13.6 S 20.6 0.0 0.4
15:48 8.6 4.0 73 1016.1 14.5 W 20.6 0.0 0.4
15:49 8.6 4.0 73 1016.2 12.1 W 20.6 0.0 0.4
15:50 8.6 4.0 73 1016.2 11.4 SW 19.7 0.0 0.4
15:51 8.7 4.1 73 1016.2 19.0 SW 20.6 0.0 0.4
15:52 8.7 4.1 73 1016.4 16.8 SW 20.6 0.0 0.4
15:53 8.7 3.9 72 1016.3 15.2 SW 20.6 0.0 0.4
15:54 8.6 3.8 72 1016.5 20.6 W 20.6 0.0 0.4
15:55 8.6 3.8 72 1016.2 15.2 NW 20.6 0.0 0.4
15:57 8.6 3.8 72 1016.2 19.0 SW 20.6 0.0 0.4
15:58 8.5 3.7 72 1016.3 22.1 SW 22.1 0.0 0.4
15:59 8.5 3.7 72 1016.3 20.6 SW 22.1 0.0 0.4
16:00 8.5 3.7 72 1016.4 20.6 SW 22.1 0.0 0.4
16:01 8.4 3.6 72 1016.4 14.5 SW 22.1 0.0 0.4
16:02 8.4 3.6 72 1016.4 15.9 SW 22.1 0.0 0.4
16:03 8.4 3.8 73 1016.6 13.0 SW 22.1 0.0 0.4
16:04 8.3 3.7 73 1016.4 14.5 W 22.1 0.0 0.4
16:05 8.3 3.7 73 1016.4 13.0 SW 22.1 0.0 0.4
16:06 8.2 3.7 73 1016.5 15.2 SW 22.1 0.0 0.4
16:07 8.2 3.7 73 1016.6 13.0 SW 22.1 0.0 0.4
16:09 8.1 3.7 74 1016.4 11.4 SW 20.6 0.0 0.4
16:10 8.1 3.7 74 1016.4 9.8 SW 16.8 0.0 0.4
16:12 8.1 3.7 74 1016.4 10.7 SW 15.9 0.0 0.4
16:13 8.1 3.7 74 1016.6 10.7 W 15.2 0.0 0.4
16:15 8.1 3.9 75 1016.7 16.8 W 16.8 0.0 0.4
16:16 8.1 3.9 75 1016.5 12.1 SW 16.8 0.0 0.4
16:18 8.1 3.9 75 1016.5 13.6 SW 16.8 0.0 0.4
16:19 8.0 3.8 75 1016.6 11.4 NW 16.8 0.0 0.4
16:21 8.0 3.8 75 1016.6 11.4 W 16.8 0.0 0.4
16:22 8.0 3.8 75 1016.6 10.7 SW 16.8 0.0 0.4
16:23 7.9 3.7 75 1016.7 9.2 W 16.8 0.0 0.4
16:25 7.8 3.6 75 1016.8 14.5 SW 16.8 0.0 0.4
16:26 7.8 3.6 75 1016.7 13.0 SW 14.5 0.0 0.4
16:28 7.7 3.6 75 1016.9 12.1 NW 14.5 0.0 0.4
16:29 7.7 3.6 75 1016.9 12.1 SW 14.5 0.0 0.4
16:30 7.7 3.6 75 1016.7 15.9 SW 15.9 0.0 0.4
16:31 7.7 3.6 75 1016.6 11.4 W 15.9 0.0 0.4
16:33 7.7 3.7 76 1016.7 9.8 SW 15.9 0.0 0.4
16:34 7.7 3.7 76 1016.6 11.4 WNW 15.9 0.0 0.4
16:35 7.7 3.7 76 1016.8 9.8 SW 15.9 0.0 0.4
16:36 7.7 3.7 76 1016.7 8.3 SW 15.9 0.0 0.4
16:37 7.7 3.7 76 1016.9 9.8 NW 15.9 0.0 0.4
16:38 7.7 3.7 76 1016.8 13.6 W 15.9 0.0 0.4
16:39 7.7 3.9 77 1016.9 9.2 SW 15.9 0.0 0.4
16:40 7.7 3.9 77 1016.8 14.5 SW 15.9 0.0 0.4
16:41 7.7 3.9 77 1016.8 11.4 SW 14.5 0.0 0.4
16:42 7.7 3.9 77 1016.7 12.1 SW 14.5 0.0 0.4
16:43 7.7 3.9 77 1016.7 11.4 SW 14.5 0.0 0.4
16:44 7.7 3.7 76 1016.7 14.5 W 14.5 0.0 0.4
16:45 7.7 3.7 76 1016.9 12.1 SW 14.5 0.0 0.4
16:46 7.7 3.7 76 1016.8 12.1 W 14.5 0.0 0.4
16:47 7.7 3.7 76 1016.8 10.7 NW 14.5 0.0 0.4
16:48 7.6 3.6 76 1017.0 13.6 SW 14.5 0.0 0.4
16:49 7.6 3.6 76 1016.8 9.8 W 14.5 0.0 0.4
16:50 7.6 3.6 76 1016.9 9.2 NW 14.5 0.0 0.4
16:51 7.5 3.5 76 1017.0 9.8 SW 14.5 0.0 0.4
16:52 7.5 3.7 77 1017.1 9.8 SW 14.5 0.0 0.4
16:53 7.5 3.5 76 1016.9 9.8 W 14.5 0.0 0.4
16:54 7.4 3.6 77 1017.0 13.0 SW 13.6 0.0 0.4
16:55 7.4 3.6 77 1017.1 10.7 SW 13.6 0.0 0.4
16:56 7.3 3.5 77 1017.1 8.3 SW 13.6 0.0 0.4
16:57 7.3 3.5 77 1017.1 6.9 SW 13.6 0.0 0.4
16:58 7.3 3.5 77 1017.0 7.6 SW 13.6 0.0 0.4
16:59 7.2 3.4 77 1017.1 6.9 SW 13.0 0.0 0.4
17:01 7.2 3.4 77 1017.1 6.9 SW 13.0 0.0 0.4
17:02 7.1 3.3 77 1017.2 11.4 W 13.0 0.0 0.4
17:03 7.1 3.3 77 1017.1 6.9 SW 13.0 0.0 0.4
17:04 7.0 3.2 77 1017.1 9.2 W 13.0 0.0 0.4
17:05 7.0 3.2 77 1017.3 10.7 W 12.1 0.0 0.4
17:06 6.9 3.2 77 1017.3 8.3 W 11.4 0.0 0.4
17:07 6.9 3.2 77 1017.2 9.8 SW 11.4 0.0 0.4
17:08 6.8 3.1 77 1017.1 7.6 SW 11.4 0.0 0.4
17:09 6.8 3.1 77 1017.1 6.9 W 11.4 0.0 0.4
17:10 6.7 3.1 78 1017.2 7.6 SW 11.4 0.0 0.4
17:11 6.7 3.1 78 1017.1 5.4 SW 11.4 0.0 0.4
17:12 6.6 3.0 78 1017.2 5.4 W 10.7 0.0 0.4
17:13 6.6 3.0 78 1017.3 6.0 SW 10.7 0.0 0.4
17:14 6.5 2.9 78 1017.2 6.0 W 10.7 0.0 0.4
17:15 6.5 2.9 78 1017.2 4.5 W 9.8 0.0 0.4
17:16 6.5 2.9 78 1017.2 6.9 SW 9.8 0.0 0.4
17:17 6.5 3.1 79 1017.2 8.3 SW 9.2 0.0 0.4
17:18 6.5 3.1 79 1017.1 6.9 W 9.2 0.0 0.4
17:19 6.4 3.0 79 1017.2 7.6 SW 9.2 0.0 0.4
17:20 6.4 3.0 79 1017.2 7.6 SW 9.2 0.0 0.4
17:21 6.4 3.0 79 1017.2 4.5 SW 9.2 0.0 0.4
17:23 6.4 3.0 79 1017.4 6.0 SW 9.2 0.0 0.4
17:24 6.4 3.0 79 1017.3 6.9 SW 9.2 0.0 0.4
17:25 6.3 2.9 79 1017.3 6.9 SW 8.3 0.0 0.4
17:26 6.3 3.1 80 1017.4 6.0 SW 8.3 0.0 0.4
17:27 6.3 3.1 80 1017.3 5.4 SW 8.3 0.0 0.4
17:28 6.3 3.1 80 1017.3 5.4 SW 7.6 0.0 0.4
17:29 6.3 3.1 80 1017.3 8.3 SW 8.3 0.0 0.4
17:30 6.2 3.0 80 1017.3 8.3 SW 8.3 0.0 0.4
17:31 6.2 3.0 80 1017.3 6.9 SW 8.3 0.0 0.4
17:32 6.2 3.0 80 1017.5 7.6 NW 8.3 0.0 0.4
17:33 6.2 3.0 80 1017.4 7.6 NW 8.3 0.0 0.4
17:34 6.1 2.9 80 1017.3 9.2 SW 9.2 0.0 0.4
17:35 6.1 2.9 80 1017.6 7.6 SW 9.2 0.0 0.4
17:36 6.1 2.9 80 1017.5 9.8 SW 9.8 0.0 0.4
17:37 6.1 3.1 81 1017.5 7.6 SW 9.8 0.0 0.4
17:38 6.0 3.0 81 1017.3 9.2 SW 9.8 0.0 0.4
17:39 6.0 3.0 81 1017.5 8.3 SW 9.8 0.0 0.4
17:40 6.0 3.0 81 1017.4 8.3 SW 9.8 0.0 0.4
17:41 6.0 3.0 81 1017.4 9.8 SW 9.8 0.0 0.4
17:42 6.0 3.0 81 1017.5 11.4 SW 11.4 0.0 0.4
17:44 5.9 2.9 81 1017.5 7.6 SW 11.4 0.0 0.4
17:45 5.9 2.9 81 1017.5 6.9 SW 11.4 0.0 0.4
17:46 5.9 2.9 81 1017.5 6.9 SW 11.4 0.0 0.4
17:47 5.9 2.9 81 1017.5 6.9 SW 11.4 0.0 0.4
17:48 5.9 2.9 81 1017.5 6.9 SW 11.4 0.0 0.4
17:49 5.8 2.8 81 1017.7 11.4 SW 11.4 0.0 0.4
17:50 5.8 3.0 82 1017.8 15.2 S 15.2 0.0 0.4
17:52 5.8 3.0 82 1018.1 21.3 SW 21.3 0.0 0.4
17:53 5.9 3.1 82 1018.1 19.7 W 21.3 0.0 0.4
17:54 5.8 3.0 82 1018.2 14.5 SW 21.3 0.0 0.4
17:55 5.8 3.0 82 1018.2 12.1 SW 21.3 0.0 0.4
17:56 5.8 3.0 82 1018.2 12.1 W 21.3 0.0 0.4
17:57 5.7 2.9 82 1018.2 12.1 W 21.3 0.0 0.4
17:58 5.6 2.8 82 1018.1 13.0 SW 21.3 0.0 0.5
17:59 5.6 2.8 82 1018.1 13.0 SW 21.3 0.8 0.5
18:00 5.6 2.8 82 1018.2 13.0 SW 21.3 0.8 0.5
18:01 5.6 2.8 82 1018.2 13.0 SW 21.3 0.8 0.5
18:02 5.6 2.8 82 1018.2 13.0 SW 19.7 0.8 0.5
18:03 5.6 2.8 82 1018.1 13.0 SW 15.2 0.8 0.5
18:05 5.4 2.7 83 1018.2 6.9 W 15.2 0.0 0.5
18:06 5.3 2.6 83 1018.1 6.9 W 15.2 0.0 0.5
18:07 5.3 2.8 84 1018.0 6.9 W 15.2 0.0 0.5
18:08 5.3 2.8 84 1018.1 6.9 SW 13.0 0.0 0.5
18:10 5.2 2.7 84 1018.1 6.9 SW 13.0 0.0 0.5
18:11 5.1 2.6 84 1018.1 4.5 SW 13.0 0.0 0.5
18:13 5.2 2.7 84 1017.9 5.4 SW 13.0 0.0 0.5
18:14 5.1 2.6 84 1018.1 5.4 SW 7.6 0.0 0.5
18:16 5.1 2.6 84 1018.2 7.6 W 7.6 0.0 0.5
18:17 5.1 2.6 84 1018.2 6.9 W 7.6 0.0 0.5
18:19 5.0 2.5 84 1018.2 6.0 W 7.6 0.0 0.5
18:20 5.0 2.7 85 1018.4 4.5 SW 7.6 0.0 0.5
18:22 4.9 2.6 85 1018.4 6.0 SW 7.6 0.0 0.5
18:24 4.8 2.5 85 1018.2 4.5 SW 7.6 0.0 0.5
18:26 4.8 2.5 85 1018.4 6.0 SW 6.9 0.0 0.5
18:27 4.8 2.5 85 1018.6 6.9 SW 6.9 0.0 0.5
18:29 4.7 2.4 85 1018.7 8.3 SW 8.3 0.0 0.5
18:30 4.7 2.4 85 1018.7 6.9 SW 8.3 0.0 0.5
18:31 4.7 2.4 85 1019.0 7.6 W 8.3 0.0 0.5
18:32 4.7 2.6 86 1018.8 23.5 SW 23.5 0.0 0.5
18:33 4.7 2.6 86 1018.8 18.3 S 23.5 0.0 0.5
18:34 4.7 2.6 86 1018.7 14.5 W 23.5 0.0 0.5
18:36 4.7 2.6 86 1018.9 14.5 N 23.5 0.0 0.5
18:37 4.7 2.6 86 1018.7 11.4 W 23.5 0.0 0.5
18:38 4.7 2.6 86 1019.1 11.4 SW 23.5 0.0 0.5
18:40 4.7 2.6 86 1019.0 10.7 SW 23.5 0.0 0.5
18:41 4.7 2.7 87 1019.0 13.6 W 23.5 0.0 0.5
18:42 4.7 2.6 86 1018.8 11.4 NW 23.5 0.0 0.5
18:43 4.7 2.7 87 1019.0 9.2 N 19.0 0.0 0.5
18:44 4.7 2.7 87 1019.0 11.4 W 19.0 0.0 0.5
18:46 4.7 2.7 87 1018.8 10.7 W 14.5 0.0 0.5
18:47 4.7 2.7 87 1018.8 10.7 SW 14.5 0.0 0.5
18:48 4.6 2.6 87 1018.7 7.6 SW 14.5 0.0 0.5
18:49 4.6 2.6 87 1018.7 9.2 SW 14.5 0.0 0.5
18:50 4.7 2.7 87 1018.7 8.3 SW 14.5 0.0 0.5
18:51 4.6 2.6 87 1018.6 9.2 SW 14.5 0.0 0.5
18:53 4.6 2.5 86 1018.8 8.3 SW 12.1 0.0 0.5
18:54 4.6 2.5 86 1018.9 7.6 SW 12.1 0.0 0.5
18:55 4.6 2.6 87 1018.8 6.9 SW 12.1 0.0 0.5
18:56 4.6 2.6 87 1018.7 8.3 SW 10.7 0.0 0.5
18:57 4.6 2.5 86 1018.7 9.2 NW 9.8 0.0 0.5
18:58 4.6 2.5 86 1018.9 9.8 W 9.8 0.0 0.5
18:59 4.5 2.4 86 1018.9 8.3 W 9.8 0.0 0.5
19:00 4.5 2.4 86 1019.0 8.3 W 9.8 0.0 0.5
19:01 4.5 2.4 86 1019.0 8.3 W 9.8 0.0 0.5
19:03 4.5 2.4 86 1019.1 8.3 W 9.8 0.0 0.5
19:04 4.5 2.4 86 1019.0 8.3 W 9.8 0.0 0.5
19:05 4.6 2.5 86 1019.0 7.6 SW 9.8 0.0 0.5
19:06 4.6 2.5 86 1019.1 7.6 SW 9.8 0.0 0.5
19:07 4.6 2.5 86 1019.2 9.2 SW 9.8 0.0 0.5
19:08 4.5 2.4 86 1019.2 8.3 SW 9.8 0.0 0.5
19:09 4.5 2.4 86 1019.2 6.0 S 9.2 0.0 0.5
19:10 4.5 2.4 86 1019.2 7.6 SW 9.2 0.0 0.5
19:11 4.5 2.4 86 1019.1 9.2 SW 9.2 0.0 0.5
19:12 4.5 2.4 86 1019.2 8.3 SW 9.2 0.0 0.5
19:14 4.5 2.4 86 1019.2 6.9 S 9.2 0.0 0.5
19:15 4.5 2.4 86 1019.3 8.3 SW 9.2 0.0 0.5
19:16 4.5 2.4 86 1019.2 6.0 SW 9.2 0.0 0.5
19:17 4.5 2.2 85 1019.0 6.0 SW 9.2 0.0 0.5
19:18 4.5 2.4 86 1019.1 10.7 S 10.7 0.0 0.5
19:19 4.5 2.4 86 1019.0 6.9 SW 10.7 0.0 0.5
19:20 4.5 2.2 85 1019.0 6.0 SW 10.7 0.0 0.5
19:21 4.4 2.1 85 1019.0 7.6 S 10.7 0.0 0.5
19:22 4.4 2.1 85 1019.1 8.3 WNW 10.7 0.0 0.5
19:23 4.4 2.1 85 1019.2 6.9 SW 10.7 0.0 0.5
19:25 4.4 2.1 85 1019.1 6.0 S 10.7 0.0 0.5
19:26 4.4 2.1 85 1019.1 5.4 SW 10.7 0.0 0.5
19:27 4.4 2.1 85 1019.2 4.5 SW 10.7 0.0 0.5
19:28 4.4 2.1 85 1019.1 6.0 SW 10.7 0.0 0.5
19:29 4.3 2.0 85 1019.1 5.4 S 8.3 0.0 0.5
19:30 4.3 2.0 85 1019.2 4.5 SW 9.2 0.0 0.5
19:31 4.3 2.0 85 1019.1 8.3 SW 9.2 0.0 0.5
19:32 4.2 1.9 85 1019.2 9.2 S 9.2 0.0 0.5
19:34 4.2 1.9 85 1019.2 6.0 SW 9.2 0.0 0.5
19:35 4.2 1.9 85 1019.3 6.0 SW 9.2 0.0 0.5
19:36 4.2 1.9 85 1019.3 6.9 SW 9.2 0.0 0.5
19:37 4.1 1.8 85 1019.3 6.9 SW 9.2 0.0 0.5
19:38 4.1 1.8 85 1019.3 6.9 SW 9.2 0.0 0.5
19:39 4.1 1.8 85 1019.4 9.2 SW 9.2 0.0 0.5
19:40 4.1 1.8 85 1019.4 7.6 W 9.2 0.0 0.5
19:41 4.1 1.8 85 1019.3 7.6 W 11.4 0.0 0.5
19:43 4.1 1.8 85 1019.4 9.2 SW 11.4 0.0 0.5
19:44 4.1 2.0 86 1019.4 12.1 SW 16.8 0.0 0.5
19:45 4.1 2.0 86 1019.3 13.6 SW 16.8 0.0 0.5
19:46 4.1 2.0 86 1019.2 10.7 SW 16.8 0.0 0.5
19:47 4.1 2.0 86 1019.2 8.3 SW 16.8 0.0 0.5
19:48 4.2 2.1 86 1019.4 10.7 SW 16.8 0.0 0.5
19:49 4.2 2.1 86 1019.3 10.7 SW 16.8 0.0 0.5
19:51 4.3 2.2 86 1019.5 6.9 W 16.8 0.0 0.5
19:53 4.3 2.2 86 1019.4 7.6 SW 16.8 0.0 0.5
19:55 4.3 2.3 87 1019.4 6.9 SW 13.6 0.0 0.5
19:56 4.4 2.4 87 1019.6 7.6 SW 12.1 0.0 0.5
19:57 4.4 2.4 87 1019.6 8.3 SW 12.1 0.0 0.5
19:59 4.4 2.4 87 1019.6 6.9 S 12.1 0.0 0.5
20:00 4.4 2.4 87 1019.4 6.9 S 12.1 0.0 0.5
20:01 4.4 2.4 87 1019.6 6.9 S 12.1 0.0 0.5
20:03 4.4 2.4 87 1019.6 6.9 S 9.8 0.0 0.5
20:04 4.4 2.4 87 1019.5 6.9 S 9.8 0.0 0.5
20:05 4.4 2.4 87 1019.6 6.0 SW 9.8 0.0 0.5
20:06 4.3 2.3 87 1019.5 6.9 SW 8.3 0.0 0.5
20:07 4.3 2.3 87 1019.6 4.5 SW 8.3 0.0 0.5
20:09 4.3 2.3 87 1019.6 6.0 SW 6.9 0.0 0.5
20:11 4.2 2.2 87 1019.6 6.9 SW 6.9 0.0 0.5
20:13 4.1 2.1 87 1019.7 6.0 S 6.9 0.0 0.5
20:15 4.1 2.1 87 1019.8 5.4 S 6.9 0.0 0.5
20:17 4.0 2.0 87 1019.5 5.4 SW 8.3 0.0 0.5
20:18 4.0 2.0 87 1019.7 5.4 SW 8.3 0.0 0.5
20:20 4.0 2.0 87 1019.6 6.0 S 8.3 0.0 0.5
20:22 3.9 2.1 88 1019.8 4.5 S 8.3 0.0 0.5
20:24 3.9 2.1 88 1019.7 6.9 SW 8.3 0.0 0.5
20:26 3.8 2.0 88 1019.7 5.4 SW 8.3 0.0 0.5
20:28 3.8 2.0 88 1019.7 4.5 SW 6.9 0.0 0.5
20:30 3.8 2.0 88 1019.8 3.1 SW 6.9 0.0 0.5
20:31 3.7 1.9 88 1019.8 4.5 SW 6.9 0.0 0.5
20:33 3.7 1.9 88 1019.5 4.5 SW 6.9 0.0 0.5
20:35 3.6 1.8 88 1019.7 5.4 S 5.4 0.0 0.5
20:36 3.6 1.8 88 1019.8 5.4 N 5.4 0.0 0.5
20:38 3.6 1.8 88 1019.7 5.4 S 5.4 0.0 0.5
20:40 3.6 1.8 88 1019.8 5.4 SW 5.4 0.0 0.5
20:41 3.5 1.7 88 1019.8 3.8 SW 5.4 0.0 0.5
20:42 3.5 1.9 89 1019.7 3.8 SW 5.4 0.0 0.5
20:43 3.5 1.9 89 1019.7 4.5 SW 5.4 0.0 0.5
20:44 3.5 1.9 89 1019.8 4.5 SW 5.4 0.0 0.5
20:45 3.5 1.9 89 1019.9 5.4 SW 5.4 0.0 0.5
20:46 3.4 1.8 89 1019.9 4.5 SW 5.4 0.0 0.5
20:48 3.4 1.8 89 1019.8 6.0 SW 6.0 0.0 0.5
20:49 3.4 1.8 89 1019.9 5.4 S 6.0 0.0 0.5
20:50 3.4 1.8 89 1020.0 3.8 SW 6.0 0.0 0.5
20:51 3.4 1.8 89 1019.9 4.5 SW 6.0 0.0 0.5
20:52 3.4 1.8 89 1020.0 3.8 S 6.0 0.0 0.5
20:54 3.3 1.7 89 1020.0 4.5 SW 6.0 0.0 0.5
20:56 3.3 1.7 89 1019.8 3.8 SW 6.0 0.0 0.5
20:57 3.3 1.7 89 1020.0 3.8 S 6.0 0.0 0.5
20:58 3.3 1.8 90 1020.0 3.8 S 5.4 0.0 0.5
20:59 3.3 1.8 90 1019.9 3.1 W 5.4 0.0 0.5
21:01 3.3 1.8 90 1020.1 3.1 W 5.4 0.0 0.5
21:02 3.3 1.8 90 1020.1 3.1 W 5.4 0.0 0.5
21:03 3.3 1.8 90 1020.0 3.1 W 5.4 0.0 0.5
21:04 3.3 1.8 90 1020.1 3.1 W 4.5 0.0 0.5
21:05 3.2 1.7 90 1020.2 2.2 S 4.5 0.0 0.5
21:07 3.1 1.6 90 1020.2 2.2 S 3.8 0.0 0.5
21:08 3.1 1.6 90 1020.2 2.2 S 3.8 0.0 0.5
21:09 3.1 1.6 90 1020.2 2.2 S 3.1 0.0 0.5
21:11 3.1 1.6 90 1020.2 2.2 S 3.1 0.0 0.5
21:12 3.1 1.6 90 1020.2 2.2 S 3.1 0.0 0.5
21:13 3.1 1.6 90 1020.2 1.6 S 3.1 0.0 0.5
21:14 3.0 1.5 90 1020.2 1.6 S 2.2 0.0 0.5
21:16 3.0 1.7 91 1020.4 1.6 S 2.2 0.0 0.5
21:17 3.0 1.5 90 1020.4 1.6 S 2.2 0.0 0.5
21:18 3.0 1.5 90 1020.3 1.6 S 2.2 0.0 0.5
21:19 3.0 1.7 91 1020.4 1.6 N 2.2 0.0 0.5
21:20 3.0 1.7 91 1020.4 1.6 N 2.2 0.0 0.5
21:21 3.0 1.7 91 1020.6 0.7 N 2.2 0.0 0.5
21:22 3.0 1.7 91 1020.3 2.2 SW 2.2 0.0 0.5
21:24 2.9 1.6 91 1020.5 1.6 SW 2.2 0.0 0.5
21:25 3.0 1.7 91 1020.5 0.7 SW 2.2 0.0 0.5
21:26 2.9 1.6 91 1020.6 0.7 SW 2.2 0.0 0.5
21:27 2.9 1.6 91 1020.4 2.2 SW 2.2 0.0 0.5
21:28 2.9 1.6 91 1020.6 2.2 SW 2.2 0.0 0.5
21:29 2.9 1.6 91 1020.5 1.6 SW 2.2 0.0 0.5
21:30 2.9 1.6 91 1020.6 3.1 SW 3.1 0.0 0.5
21:31 2.9 1.6 91 1020.6 3.1 SW 3.1 0.0 0.5
21:32 2.9 1.6 91 1020.5 3.1 SW 3.1 0.0 0.5
21:33 3.0 1.7 91 1020.6 2.2 SW 3.1 0.0 0.5
21:35 3.0 1.8 92 1020.7 3.1 SW 3.1 0.0 0.5
21:36 3.0 1.8 92 1020.5 3.1 SW 3.1 0.0 0.5
21:37 3.0 1.8 92 1020.6 2.2 SW 3.1 0.0 0.5
21:38 3.0 1.8 92 1020.6 3.1 SW 3.1 0.0 0.5
21:39 3.0 1.8 92 1020.6 3.1 SW 3.1 0.0 0.5
21:40 3.0 1.8 92 1020.7 3.8 SW 3.8 0.0 0.5
21:41 3.0 1.8 92 1020.7 3.1 SW 3.8 0.0 0.5
21:43 3.1 1.9 92 1020.8 3.1 SW 3.8 0.0 0.5
21:44 3.1 1.9 92 1020.7 3.8 SW 3.8 0.0 0.5
21:45 3.1 1.9 92 1020.7 3.8 SW 3.8 0.0 0.5
21:46 3.1 1.9 92 1020.7 3.8 SW 3.8 0.0 0.5
21:47 3.1 1.9 92 1020.7 3.1 SW 3.8 0.0 0.5
21:48 3.1 1.9 92 1020.8 4.5 W 4.5 0.0 0.5
21:49 3.1 1.9 92 1020.8 3.8 W 4.5 0.0 0.5
21:51 3.1 2.1 93 1020.6 3.1 SW 4.5 0.0 0.5
21:52 3.2 2.2 93 1020.7 3.8 NW 4.5 0.0 0.5
21:53 3.1 2.1 93 1020.7 4.5 W 4.5 0.0 0.5
21:54 3.2 2.2 93 1020.8 3.8 W 4.5 0.0 0.5
21:55 3.2 2.2 93 1020.7 3.8 W 4.5 0.0 0.5
21:56 3.2 2.2 93 1020.8 2.2 W 4.5 0.0 0.5
21:58 3.2 2.2 93 1020.7 2.2 W 4.5 0.0 0.5
21:59 3.2 2.2 93 1020.8 2.2 W 4.5 0.0 0.5
22:00 3.2 2.2 93 1020.8 2.2 W 4.5 0.0 0.5
22:01 3.2 2.2 93 1020.9 2.2 W 4.5 0.0 0.5
22:02 3.2 2.2 93 1020.8 2.2 W 4.5 0.0 0.5
22:03 3.2 2.2 93 1020.8 2.2 W 3.8 0.0 0.5
22:05 3.2 2.2 93 1020.8 2.2 W 3.8 0.0 0.5
22:06 3.2 2.2 93 1020.8 2.2 W 3.1 0.0 0.5
22:07 3.2 2.2 93 1020.7 2.2 W 3.1 0.0 0.5
22:09 3.2 2.2 93 1020.9 2.2 W 2.2 0.0 0.5
22:10 3.1 2.1 93 1021.0 2.2 W 2.2 0.0 0.5
22:12 3.1 2.1 93 1021.1 3.1 SW 3.1 0.0 0.5
22:14 3.1 2.1 93 1021.1 3.1 SW 3.1 0.0 0.5
22:15 3.0 2.0 93 1021.1 4.5 SW 4.5 0.0 0.5
22:17 3.0 2.0 93 1021.1 4.5 SW 4.5 0.0 0.5
22:19 3.0 2.0 93 1021.1 3.1 SW 4.5 0.0 0.5
22:20 3.0 2.0 93 1021.1 4.5 SW 4.5 0.0 0.5
22:22 3.0 2.0 93 1021.2 3.8 SW 4.5 0.0 0.5
22:24 3.0 2.0 93 1021.1 3.8 N 6.0 0.0 0.5
22:25 3.0 2.0 93 1021.1 5.4 SW 6.0 0.0 0.5
22:27 3.0 2.0 93 1021.2 5.4 SW 6.9 0.0 0.5
22:29 3.0 2.0 93 1020.9 4.5 SW 6.9 0.0 0.5
22:30 3.1 2.2 94 1021.1 3.8 W 6.9 0.0 0.5
22:31 3.1 2.2 94 1021.3 5.4 W 6.9 0.0 0.5
22:32 3.1 2.2 94 1021.2 6.0 SW 6.9 0.0 0.5
22:34 3.1 2.2 94 1021.2 6.0 W 6.9 0.0 0.5
22:35 3.2 2.3 94 1021.2 6.0 SW 6.9 0.0 0.5
22:36 3.2 2.3 94 1021.2 6.0 W 6.9 0.0 0.5
22:37 3.2 2.3 94 1021.1 5.4 W 6.0 0.0 0.5
22:38 3.2 2.3 94 1021.2 4.5 W 6.0 0.0 0.5
22:39 3.2 2.3 94 1021.3 3.8 W 6.0 0.0 0.5
22:40 3.2 2.3 94 1021.1 4.5 W 6.0 0.0 0.5
22:41 3.2 2.3 94 1021.2 4.5 SW 6.0 0.0 0.5
22:42 3.2 2.3 94 1021.2 4.5 W 6.0 0.0 0.5
22:44 3.2 2.3 94 1021.1 4.5 W 6.0 0.0 0.5
22:45 3.2 2.3 94 1021.1 4.5 W 6.0 0.0 0.5
22:46 3.2 2.3 94 1021.3 5.4 W 6.0 0.0 0.5
22:47 3.2 2.3 94 1021.1 5.4 W 5.4 0.0 0.5
22:48 3.2 2.3 94 1021.1 4.5 SW 5.4 0.0 0.5
22:49 3.2 2.3 94 1021.3 4.5 W 5.4 0.0 0.5
22:50 3.2 2.3 94 1021.2 5.4 SW 5.4 0.0 0.5
22:51 3.2 2.3 94 1021.2 4.5 SW 5.4 0.0 0.5
22:53 3.2 2.3 94 1021.1 5.4 SW 5.4 0.0 0.5
22:54 3.2 2.3 94 1021.2 3.8 SW 5.4 0.0 0.5
22:55 3.2 2.3 94 1021.2 4.5 W 5.4 0.0 0.5
22:56 3.2 2.3 94 1021.1 3.8 SW 5.4 0.0 0.5
22:57 3.2 2.3 94 1021.1 5.4 W 5.4 0.0 0.5
22:58 3.2 2.3 94 1021.2 4.5 SW 5.4 0.0 0.5
22:59 3.2 2.3 94 1021.2 5.4 SW 5.4 0.0 0.5
23:00 3.2 2.3 94 1021.2 5.4 SW 5.4 0.0 0.5
23:02 3.2 2.3 94 1021.4 5.4 SW 5.4 0.0 0.5
23:03 3.2 2.3 94 1021.2 5.4 SW 5.4 0.0 0.5
23:04 3.2 2.3 94 1021.2 5.4 SW 5.4 0.0 0.5
23:05 3.2 2.3 94 1021.2 5.4 SW 5.4 0.0 0.5
23:06 3.2 2.3 94 1021.3 5.4 W 5.4 0.0 0.5
23:07 3.2 2.3 94 1021.3 5.4 W 5.4 0.0 0.5
23:09 3.2 2.3 94 1021.2 4.5 SW 5.4 0.0 0.5
23:10 3.2 2.3 94 1021.4 3.8 SW 5.4 0.0 0.5
23:11 3.2 2.3 94 1021.3 4.5 SW 5.4 0.0 0.5
23:12 3.2 2.3 94 1021.4 6.0 SW 6.0 0.0 0.5
23:13 3.2 2.3 94 1021.4 6.0 SW 6.0 0.0 0.5
23:14 3.2 2.3 94 1021.4 5.4 W 6.0 0.0 0.5
23:15 3.2 2.3 94 1021.3 6.9 W 6.9 0.0 0.5
23:16 3.2 2.3 94 1021.4 5.4 SW 6.9 0.0 0.5
23:17 3.2 2.3 94 1021.4 5.4 W 6.9 0.0 0.5
23:19 3.2 2.3 94 1021.4 4.5 W 6.9 0.0 0.5
23:20 3.2 2.3 94 1021.5 5.4 W 6.9 0.0 0.5
23:21 3.2 2.3 94 1021.5 7.6 SW 7.6 0.0 0.5
23:22 3.2 2.3 94 1021.5 5.4 W 7.6 0.0 0.5
23:23 3.2 2.3 94 1021.3 6.0 SW 7.6 0.0 0.5
23:24 3.2 2.3 94 1021.6 6.0 SW 7.6 0.0 0.5
23:25 3.2 2.3 94 1021.5 4.5 SW 7.6 0.0 0.5
23:27 3.2 2.3 94 1021.5 5.4 SW 7.6 0.0 0.5
23:28 3.3 2.4 94 1021.5 5.4 W 7.6 0.0 0.5
23:29 3.3 2.4 94 1021.6 5.4 SW 7.6 0.0 0.5
23:30 3.3 2.4 94 1021.5 5.4 SW 7.6 0.0 0.5
23:31 3.3 2.4 94 1021.5 5.4 W 6.0 0.0 0.5
23:32 3.3 2.4 94 1021.6 4.5 W 6.0 0.0 0.5
23:33 3.3 2.4 94 1021.5 5.4 SW 6.0 0.0 0.5
23:34 3.3 2.4 94 1021.6 5.4 SW 6.0 0.0 0.5
23:36 3.3 2.4 94 1021.4 4.5 W 6.0 0.0 0.5
23:37 3.3 2.4 94 1021.6 4.5 SW 6.0 0.0 0.5
23:38 3.3 2.4 94 1021.5 3.8 W 6.0 0.0 0.5
23:39 3.3 2.4 94 1021.6 4.5 SW 6.0 0.0 0.5
23:40 3.3 2.4 94 1021.7 4.5 SW 6.0 0.0 0.5
23:41 3.3 2.4 94 1021.7 4.5 W 6.0 0.0 0.5
23:43 3.3 2.4 94 1021.8 4.5 SW 6.9 0.0 0.5
23:44 3.3 2.4 94 1021.8 3.8 SW 6.9 0.0 0.5
23:45 3.3 2.4 94 1021.7 4.5 SW 6.9 0.0 0.5
23:46 3.3 2.4 94 1021.7 5.4 W 6.9 0.0 0.5
23:47 3.3 2.4 94 1021.7 4.5 W 6.9 0.0 0.5
23:48 3.3 2.4 94 1021.8 3.8 SW 6.9 0.0 0.5
23:49 3.3 2.4 94 1021.8 3.8 N 6.9 0.0 0.5
23:51 3.3 2.4 94 1021.7 3.8 W 6.9 0.0 0.5
23:52 3.3 2.4 94 1021.9 3.1 W 6.9 0.0 0.5
23:53 3.3 2.4 94 1021.8 3.8 SW 5.4 0.0 0.5
23:55 3.3 2.4 94 1021.7 3.1 SW 5.4 0.0 0.5
23:56 3.3 2.4 94 1021.7 3.8 W 4.5 0.0 0.5
23:58 3.4 2.5 94 1021.7 4.5 W 4.5 0.0 0.5
23:59 3.3 2.4 94 1021.8 4.5 W 4.5 0.0 0.5

UK - WEATHER STATION TOPSITES - UK World Weather Websites

This is a private weather station, never base important decisions or events on data from this weather station. Although every effort has been made to make the data as accurate as possible it does not meet MetOffice standards. It is proved as a guide of local weather conditions. We accept no liability for any loss which may arise from use of the data.

Copyright © Carnkie Weather 2009 - 2018.